FW6030 Weather Reports


time (UTC)temp
C
wind
direction
speed
KPH
gust
KPH
rain 1hr
cm
rain 24hr
cm
rain mn
cm
humidity
%
barometer
mb
20260509152819 25 360 4.8 19.3 0.00 0.03 0.03 89 1012.5
20260509152718 25 360 6.4 19.3 0.00 0.03 0.03 90 1012.5
20260509152618 25 360 6.4 19.3 0.00 0.03 0.03 90 1012.5
20260509152519 24 360 6.4 19.3 0.00 0.03 0.03 90 1012.5
20260509152438 24 360 8.0 19.3 0.00 0.03 0.03 91 1012.5
20260509152319 24 360 9.7 19.3 0.00 0.03 0.03 90 1012.6
20260509152243 24 360 9.7 19.3 0.00 0.03 0.03 91 1012.6
20260509152123 23 360 9.7 17.7 0.00 0.03 0.03 91 1012.6
20260509152021 23 360 8.0 16.1 0.00 0.03 0.03 91 1012.6
20260509151921 23 360 8.0 16.1 0.00 0.03 0.03 91 1012.6
20260509151820 23 360 6.4 17.7 0.00 0.03 0.03 92 1012.6
20260509151719 23 360 6.4 17.7 0.00 0.03 0.03 92 1012.6
20260509151641 23 360 4.8 17.7 0.00 0.03 0.03 92 1012.5
20260509151520 23 360 6.4 17.7 0.00 0.03 0.03 92 1012.7
20260509151424 23 360 6.4 17.7 0.00 0.03 0.03 92 1012.6
20260509151345 23 360 6.4 17.7 0.00 0.03 0.03 92 1012.6
20260509151224 23 360 8.0 17.7 0.00 0.03 0.03 92 1012.5
20260509151125 23 360 9.7 17.7 0.00 0.03 0.03 92 1012.4
20260509151024 23 360 9.7 17.7 0.00 0.03 0.03 92 1012.4
20260509150926 23 360 9.7 17.7 0.00 0.03 0.03 92 1012.4
20260509150826 23 360 9.7 17.7 0.00 0.03 0.03 92 1012.4
20260509150726 23 360 6.4 16.1 0.00 0.03 0.03 93 1012.5
20260509150630 23 360 6.4 14.5 0.00 0.03 0.03 93 1012.5
20260509150532 23 360 4.8 9.7 0.00 0.03 0.03 93 1012.4
20260509150432 23 360 4.8 9.7 0.00 0.03 0.03 93 1012.5
20260509150333 23 360 4.8 9.7 0.00 0.03 0.03 93 1012.5
20260509150232 23 360 4.8 9.7 0.00 0.03 0.03 93 1012.5
20260509150133 23 360 3.2 14.5 0.00 0.03 0.03 93 1012.6
20260509150037 23 360 3.2 14.5 0.00 0.03 0.03 93 1012.6
20260509145917 23 360 3.2 14.5 0.00 0.03 0.03 93 1012.6
20260509145837 23 360 4.8 17.7 0.00 0.03 0.03 93 1012.6
20260509145737 23 360 4.8 17.7 0.00 0.03 0.03 93 1012.5
20260509145616 23 360 8.0 17.7 0.00 0.03 0.03 93 1012.4
20260509145516 22 360 8.0 17.7 0.00 0.03 0.03 93 1012.3
20260509145417 22 360 9.7 17.7 0.00 0.03 0.03 93 1012.3
20260509145337 22 360 9.7 20.9 0.00 0.03 0.03 93 1012.3
20260509145221 22 360 9.7 22.5 0.00 0.03 0.03 93 1012.3
20260509145122 22 360 9.7 22.5 0.00 0.03 0.03 93 1012.3
20260509145024 22 360 9.7 22.5 0.00 0.03 0.03 93 1012.3
20260509144925 22 360 11.3 22.5 0.00 0.03 0.03 93 1012.3
20260509144824 22 360 11.3 22.5 0.00 0.03 0.03 93 1012.3
20260509144725 22 360 12.9 22.5 0.00 0.03 0.03 93 1012.2
20260509144629 22 360 12.9 22.5 0.00 0.03 0.03 93 1012.2
20260509144531 22 360 12.9 22.5 0.00 0.03 0.03 93 1012.1
20260509144431 22 360 12.9 22.5 0.00 0.03 0.03 93 1012.1
20260509144331 22 360 11.3 20.9 0.00 0.03 0.03 93 1012.2
20260509144232 22 360 9.7 20.9 0.00 0.03 0.03 93 1012.1
20260509144131 22 360 8.0 20.9 0.00 0.03 0.03 93 1012.0
20260509144032 22 360 8.0 20.9 0.00 0.03 0.03 93 1012.1
20260509143936 22 360 8.0 20.9 0.00 0.03 0.03 93 1012.0
20260509143836 22 360 9.7 20.9 0.00 0.03 0.03 93 1012.1
20260509143716 22 360 9.7 20.9 0.00 0.03 0.03 93 1012.0
20260509143617 22 360 11.3 20.9 0.00 0.03 0.03 93 1012.1
20260509143518 22 360 11.3 20.9 0.00 0.03 0.03 93 1012.1
20260509143418 22 360 12.9 20.9 0.00 0.03 0.03 93 1012.1
20260509143320 22 360 11.3 20.9 0.00 0.03 0.03 93 1012.0
20260509143224 22 360 12.9 20.9 0.00 0.03 0.03 94 1011.9
20260509143125 22 360 9.7 19.3 0.00 0.03 0.03 94 1011.9
20260509143025 22 360 8.0 19.3 0.00 0.03 0.03 94 1011.9
20260509142926 22 360 8.0 20.9 0.00 0.03 0.03 94 1011.8
20260509142826 22 360 8.0 20.9 0.00 0.03 0.03 94 1011.8
20260509142726 22 360 9.7 25.7 0.00 0.03 0.03 94 1011.8
20260509142630 22 360 11.3 25.7 0.00 0.03 0.03 94 1011.8
20260509142531 22 360 12.9 25.7 0.00 0.03 0.03 94 1011.9
20260509142431 22 360 12.9 25.7 0.00 0.03 0.03 94 1011.9
20260509142331 22 360 12.9 25.7 0.00 0.03 0.03 94 1011.9
20260509142230 22 360 14.5 25.7 0.00 0.03 0.03 94 1011.9
20260509142131 22 360 12.9 25.7 0.00 0.03 0.03 94 1012.1
20260509142031 22 360 12.9 25.7 0.00 0.03 0.03 94 1012.0
20260509141915 22 360 11.3 25.7 0.00 0.03 0.03 94 1012.0
20260509141835 22 360 12.9 24.1 0.00 0.03 0.03 94 1012.0
20260509141716 22 360 12.9 24.1 0.00 0.03 0.03 94 1011.9
20260509141617 22 360 14.5 24.1 0.00 0.03 0.03 94 1011.8
20260509141537 22 360 12.9 24.1 0.00 0.03 0.03 94 1011.8
20260509141437 22 360 11.3 24.1 0.00 0.03 0.03 94 1011.7
20260509141316 22 360 11.3 24.1 0.00 0.03 0.03 94 1011.7
20260509141222 22 360 11.3 24.1 0.00 0.03 0.03 94 1011.7
20260509141122 22 360 11.3 19.3 0.00 0.03 0.03 94 1011.6
20260509141022 22 360 12.9 19.3 0.00 0.03 0.03 94 1011.6
20260509140923 22 360 14.5 19.3 0.00 0.03 0.03 94 1011.7
20260509140823 22 360 14.5 19.3 0.00 0.03 0.03 94 1011.7
20260509140723 22 360 14.5 17.7 0.00 0.03 0.03 94 1011.7
20260509140644 22 360 12.9 17.7 0.00 0.03 0.03 94 1011.7
20260509140528 22 360 11.3 17.7 0.00 0.03 0.03 94 1011.7
20260509140428 22 360 9.7 16.1 0.00 0.03 0.03 94 1011.6
20260509140328 22 360 9.7 16.1 0.00 0.03 0.03 94 1011.6
20260509140229 22 360 6.4 14.5 0.00 0.03 0.03 94 1011.6
20260509140149 22 360 6.4 14.5 0.00 0.03 0.03 94 1011.6
20260509140030 22 360 6.4 14.5 0.00 0.03 0.03 94 1011.6
20260509135950 22 360 4.8 14.5 0.00 0.03 0.03 95 1011.6
20260509135828 22 360 4.8 12.9 0.00 0.03 0.03 94 1011.6
20260509135732 22 360 4.8 9.7 0.00 0.03 0.03 94 1011.6
20260509135632 22 360 4.8 9.7 0.00 0.03 0.03 94 1011.6
20260509135532 22 360 4.8 9.7 0.00 0.03 0.03 94 1011.5
20260509135432 22 360 4.8 8.0 0.00 0.03 0.03 94 1011.6
20260509135333 22 360 3.2 8.0 0.00 0.03 0.03 94 1011.6
20260509135233 22 360 3.2 8.0 0.00 0.03 0.03 94 1011.6
20260509135134 22 360 3.2 8.0 0.00 0.03 0.03 94 1011.7
20260509135018 22 360 3.2 4.8 0.00 0.03 0.03 94 1011.8
20260509134918 22 360 1.6 4.8 0.00 0.03 0.03 94 1011.8
20260509134818 22 360 1.6 4.8 0.00 0.03 0.03 94 1011.9
20260509134718 22 360 1.6 4.8 0.00 0.03 0.03 94 1011.9
20260509134618 22 360 1.6 4.8 0.00 0.03 0.03 94 1012.0
20260509134538 22 360 0.0 3.2 0.00 0.03 0.03 94 1012.0
20260509134418 22 360 0.0 8.0 0.00 0.03 0.03 94 1012.0
20260509134338 22 360 0.0 8.0 0.00 0.03 0.03 94 1012.1
20260509134222 22 360 0.0 8.0 0.00 0.03 0.03 94 1012.1
20260509134124 22 360 0.0 16.1 0.00 0.03 0.03 94 1012.1
20260509134045 22 360 1.6 16.1 0.00 0.03 0.03 94 1012.1
20260509133923 22 360 1.6 16.1 0.00 0.03 0.03 94 1012.0
20260509133824 22 360 3.2 16.1 0.00 0.03 0.03 94 1012.1
20260509133744 22 360 3.2 16.1 0.00 0.03 0.03 94 1012.1
20260509133624 22 360 3.2 16.1 0.00 0.03 0.03 94 1012.1
20260509133528 22 360 4.8 16.1 0.00 0.03 0.03 94 1012.1
20260509133428 22 360 6.4 16.1 0.00 0.03 0.03 94 1012.1
20260509133349 22 360 8.0 16.1 0.00 0.03 0.03 94 1012.1
20260509133229 22 360 8.0 16.1 0.00 0.03 0.03 94 1012.1
20260509133128 22 360 8.0 16.1 0.00 0.03 0.03 94 1012.1
20260509133027 22 360 6.4 12.9 0.00 0.03 0.03 94 1012.1
20260509132927 22 360 4.8 12.9 0.00 0.03 0.03 94 1012.1
20260509132828 22 360 4.8 9.7 0.00 0.03 0.03 94 1012.0
20260509132730 22 360 6.4 9.7 0.00 0.03 0.03 94 1012.1
20260509132633 22 360 6.4 9.7 0.00 0.03 0.03 94 1012.1
20260509132534 22 360 4.8 9.7 0.00 0.03 0.03 94 1012.1
20260509132434 22 360 4.8 9.7 0.00 0.03 0.03 94 1012.2
20260509132335 22 360 3.2 9.7 0.00 0.03 0.03 94 1012.2
20260509132236 22 360 3.2 9.7 0.00 0.03 0.03 94 1012.2
20260509132156 22 360 3.2 9.7 0.00 0.03 0.03 94 1012.3
20260509132056 22 360 4.8 9.7 0.00 0.03 0.03 94 1012.3
20260509131919 22 360 6.4 9.7 0.00 0.03 0.03 94 1012.4
20260509131820 22 360 6.4 9.7 0.00 0.03 0.03 94 1012.4
20260509131721 22 360 6.4 9.7 0.00 0.03 0.03 94 1012.4
20260509131621 22 360 4.8 9.7 0.00 0.03 0.03 94 1012.5
20260509131542 22 360 4.8 9.7 0.00 0.03 0.03 94 1012.4
20260509131421 22 360 3.2 9.7 0.00 0.03 0.03 94 1012.4
20260509131322 22 360 4.8 9.7 0.00 0.03 0.03 94 1012.5
20260509131226 22 360 4.8 9.7 0.00 0.03 0.03 94 1012.4
20260509131127 22 336 4.8 9.7 0.00 0.03 0.03 94 1012.4
20260509131048 22 360 4.8 9.7 0.00 0.03 0.03 94 1012.4
20260509130927 22 18 6.4 9.7 0.00 0.03 0.03 94 1012.4
20260509130827 22 360 6.4 9.7 0.00 0.03 0.03 94 1012.2
20260509130747 22 360 6.4 9.7 0.00 0.03 0.03 94 1012.1
20260509130627 22 360 6.4 12.9 0.00 0.03 0.03 94 1012.1
20260509130533 22 360 4.8 12.9 0.00 0.03 0.03 94 1012.1
20260509130433 22 360 4.8 12.9 0.00 0.03 0.03 94 1012.0
20260509130333 22 347 4.8 12.9 0.00 0.03 0.03 94 1012.0
20260509130233 22 303 4.8 12.9 0.00 0.03 0.03 94 1012.0
20260509130134 22 360 6.4 12.9 0.00 0.03 0.03 94 1012.0
20260509130035 22 360 6.4 12.9 0.00 0.03 0.03 94 1011.9
20260509125934 22 360 6.4 12.9 0.00 0.03 0.03 94 1012.0
20260509125820 22 360 8.0 12.9 0.00 0.03 0.03 94 1012.0
20260509125719 22 360 6.4 12.9 0.00 0.03 0.03 94 1012.0
20260509125620 22 360 6.4 11.3 0.00 0.03 0.03 94 1012.0
20260509125541 22 360 6.4 11.3 0.00 0.03 0.03 94 1012.0
20260509125440 22 360 4.8 8.0 0.00 0.03 0.03 94 1011.9
20260509125319 22 360 4.8 6.4 0.00 0.03 0.03 94 1011.9
20260509125220 22 360 3.2 6.4 0.00 0.03 0.03 94 1011.9
20260509125125 22 360 1.6 4.8 0.00 0.03 0.03 94 1011.9
20260509125025 22 360 1.6 4.8 0.00 0.03 0.03 94 1011.9
20260509124925 22 360 0.0 3.2 0.00 0.03 0.03 94 1011.8
20260509124825 22 360 0.0 3.2 0.00 0.03 0.03 94 1011.8
20260509124726 22 360 0.0 3.2 0.00 0.03 0.03 94 1011.8
20260509124627 22 360 0.0 3.2 0.00 0.03 0.03 94 1011.8
20260509124548 22 360 0.0 3.2 0.00 0.03 0.03 94 1011.8
20260509124431 22 360 1.6 3.2 0.00 0.03 0.03 94 1011.8
20260509124351 22 360 1.6 3.2 0.00 0.03 0.03 94 1011.8
20260509124231 22 360 1.6 3.2 0.00 0.03 0.03 94 1011.8
20260509124132 22 360 0.0 3.2 0.00 0.03 0.03 94 1011.9
20260509124032 22 360 0.0 3.2 0.00 0.03 0.03 94 1011.8
20260509123933 22 360 1.6 3.2 0.00 0.03 0.03 94 1011.9
20260509123834 22 360 1.6 3.2 0.00 0.03 0.03 94 1011.9
20260509123718 22 360 1.6 3.2 0.00 0.03 0.03 94 1011.9
20260509123619 22 360 1.6 3.2 0.00 0.03 0.03 94 1011.8
20260509123540 22 360 1.6 3.2 0.00 0.03 0.03 94 1011.8
20260509123419 22 360 1.6 3.2 0.00 0.03 0.03 94 1011.8
20260509123320 22 360 1.6 3.2 0.00 0.03 0.03 94 1011.8
20260509123221 22 360 1.6 6.4 0.00 0.03 0.03 94 1011.7
20260509123123 22 360 0.0 6.4 0.00 0.03 0.03 94 1011.8
20260509123027 22 360 0.0 6.4 0.00 0.03 0.03 94 1011.8
20260509122928 22 360 1.6 6.4 0.00 0.03 0.03 94 1011.8
20260509122828 22 360 1.6 6.4 0.00 0.03 0.03 94 1011.8
20260509122729 22 360 1.6 6.4 0.00 0.03 0.03 94 1011.8
20260509122629 22 360 3.2 6.4 0.00 0.03 0.03 94 1011.7
20260509122549 22 360 3.2 6.4 0.00 0.03 0.03 94 1011.7
20260509122428 22 360 3.2 6.4 0.00 0.03 0.03 94 1011.7
20260509122333 22 360 3.2 6.4 0.00 0.03 0.03 94 1011.6
20260509122234 22 360 3.2 6.4 0.00 0.03 0.03 94 1011.6
20260509122134 22 360 1.6 6.4 0.00 0.03 0.03 94 1011.6
20260509122055 22 360 1.6 6.4 0.00 0.03 0.03 94 1011.7
20260509121934 22 360 1.6 4.8 0.00 0.03 0.03 94 1011.7
20260509121835 22 360 1.6 4.8 0.00 0.03 0.03 94 1011.8
20260509121719 22 360 1.6 4.8 0.00 0.03 0.03 94 1011.9
20260509121640 22 360 1.6 4.8 0.00 0.03 0.03 94 1011.9
20260509121519 22 360 0.0 3.2 0.00 0.03 0.03 94 1012.0
20260509121419 22 360 0.0 0.0 0.00 0.03 0.03 94 1012.0
20260509121320 22 360 0.0 3.2 0.00 0.03 0.03 94 1011.9
20260509121221 22 360 0.0 3.2 0.00 0.03 0.03 94 1011.9
20260509121121 22 360 0.0 3.2 0.00 0.03 0.03 94 1012.0
20260509121025 22 360 0.0 3.2 0.00 0.03 0.03 94 1012.0
20260509120926 22 360 0.0 3.2 0.00 0.03 0.03 94 1012.0
20260509120827 22 360 0.0 3.2 0.00 0.03 0.03 94 1011.9
20260509120728 22 360 0.0 3.2 0.00 0.03 0.03 94 1011.9
20260509120648 22 360 0.0 3.2 0.00 0.03 0.03 94 1011.9
20260509120528 22 360 0.0 3.2 0.00 0.03 0.03 94 1011.9
20260509120427 22 360 1.6 3.2 0.00 0.03 0.03 94 1011.8
20260509120347 22 360 1.6 3.2 0.00 0.03 0.03 94 1011.8
20260509120251 22 360 1.6 3.2 0.00 0.03 0.03 94 1011.8
20260509120131 22 360 1.6 3.2 0.00 0.03 0.03 94 1011.7
20260509120028 22 360 0.0 3.2 0.00 0.03 0.03 94 1011.9
20260509115929 22 360 0.0 4.8 0.00 0.03 0.03 94 1011.8
20260509115850 22 360 0.0 4.8 0.00 0.03 0.03 94 1011.8
20260509115730 22 360 0.0 4.8 0.00 0.03 0.03 94 1011.9
20260509115630 22 360 0.0 4.8 0.00 0.03 0.03 94 1011.8
20260509115535 22 360 1.6 4.8 0.00 0.03 0.03 94 1011.9
20260509115455 22 360 1.6 4.8 0.00 0.03 0.03 94 1011.9
20260509115334 22 360 1.6 4.8 0.00 0.03 0.03 94 1011.8
20260509115235 22 360 1.6 4.8 0.00 0.03 0.03 94 1011.9
20260509115155 22 360 3.2 4.8 0.00 0.03 0.03 94 1011.9
20260509115035 22 360 3.2 4.8 0.00 0.03 0.03 94 1011.9
20260509114955 22 360 3.2 9.7 0.00 0.03 0.03 94 1011.8
20260509114835 22 316 1.6 9.7 0.00 0.03 0.03 94 1011.8
20260509114719 22 360 1.6 9.7 0.00 0.03 0.03 94 1011.9
20260509114619 22 360 1.6 9.7 0.00 0.03 0.03 94 1011.8
20260509114520 22 315 1.6 12.9 0.00 0.03 0.03 94 1011.9
20260509114421 22 360 1.6 14.5 0.00 0.03 0.03 94 1011.9
20260509114322 22 360 3.2 14.5 0.00 0.03 0.03 94 1011.9
20260509114243 22 360 3.2 14.5 0.00 0.03 0.03 94 1011.9
20260509114116 22 360 4.8 14.5 0.00 0.03 0.03 94 1012.0
20260509114020 22 360 6.4 14.5 0.00 0.03 0.03 94 1012.0
20260509113920 22 360 8.0 14.5 0.00 0.03 0.03 94 1012.2
20260509113821 22 360 8.0 14.5 0.00 0.03 0.03 94 1012.2
20260509113723 22 360 8.0 14.5 0.00 0.03 0.03 94 1012.2
20260509113624 22 360 8.0 14.5 0.00 0.03 0.03 94 1012.3
20260509113545 22 360 6.4 12.9 0.00 0.03 0.03 94 1012.3
20260509113424 22 360 4.8 9.7 0.00 0.03 0.03 94 1012.4
20260509113348 22 360 4.8 9.7 0.00 0.03 0.03 94 1012.4
20260509113228 22 360 4.8 8.0 0.00 0.03 0.03 93 1012.4
20260509113147 22 360 4.8 8.0 0.00 0.03 0.03 94 1012.4
20260509113027 22 360 4.8 6.4 0.00 0.03 0.03 93 1012.5
20260509112928 22 360 4.8 6.4 0.00 0.03 0.03 93 1012.6
20260509112828 22 360 4.8 6.4 0.00 0.03 0.03 94 1012.5
20260509112729 22 360 4.8 6.4 0.00 0.03 0.03 94 1012.5
20260509112646 22 360 3.2 6.4 0.00 0.03 0.03 93 1012.6
20260509112526 22 360 3.2 6.4 0.00 0.03 0.03 93 1012.6
20260509112430 22 360 1.6 4.8 0.00 0.03 0.03 93 1012.6
20260509112331 22 360 1.6 4.8 0.00 0.03 0.03 93 1012.6
20260509112252 22 360 0.0 4.8 0.00 0.03 0.03 93 1012.6
20260509112130 22 315 0.0 4.8 0.00 0.03 0.03 93 1012.6
20260509112031 22 315 0.0 4.8 0.00 0.03 0.03 93 1012.5
20260509111951 22 360 0.0 4.8 0.00 0.03 0.03 93 1012.6
20260509111830 22 360 0.0 4.8 0.00 0.03 0.03 93 1012.5
20260509111730 22 360 1.6 4.8 0.00 0.03 0.03 93 1012.6
20260509111634 22 360 1.6 4.8 0.00 0.03 0.03 93 1012.5
20260509111535 22 360 1.6 8.0 0.00 0.03 0.03 93 1012.5
20260509111435 22 360 1.6 8.0 0.00 0.03 0.03 93 1012.5
20260509111336 22 360 1.6 8.0 0.00 0.03 0.03 93 1012.5
20260509111218 22 360 1.6 8.0 0.00 0.03 0.03 93 1012.6
20260509111119 22 360 3.2 8.0 0.00 0.03 0.03 93 1012.7
20260509111023 22 360 3.2 8.0 0.00 0.03 0.03 93 1012.6
20260509110924 22 360 3.2 9.7 0.00 0.03 0.03 93 1012.7
20260509110824 22 360 3.2 9.7 0.00 0.03 0.03 93 1012.7
20260509110745 22 360 3.2 9.7 0.00 0.03 0.03 93 1012.7
20260509110625 22 360 1.6 9.7 0.00 0.03 0.03 93 1012.7
20260509110525 22 360 3.2 9.7 0.00 0.03 0.03 93 1012.6
20260509110446 22 360 3.2 9.7 0.00 0.03 0.03 93 1012.7
20260509110330 22 360 3.2 9.7 0.00 0.03 0.03 93 1012.7
20260509110230 22 360 3.2 9.7 0.00 0.03 0.03 93 1012.7
20260509110130 22 360 4.8 9.7 0.00 0.03 0.03 93 1012.8
20260509110032 22 360 4.8 9.7 0.00 0.03 0.03 93 1012.8
20260509105931 22 360 4.8 8.0 0.00 0.03 0.03 93 1012.8
20260509105851 22 360 4.8 8.0 0.00 0.03 0.03 93 1012.8
20260509105750 22 360 4.8 8.0 0.00 0.03 0.03 93 1012.8
20260509105629 22 360 4.8 8.0 0.00 0.03 0.03 93 1012.8
20260509105549 22 360 4.8 9.7 0.00 0.03 0.03 93 1012.9
20260509105452 22 360 4.8 9.7 0.00 0.03 0.03 93 1012.9
20260509105352 22 346 4.8 9.7 0.00 0.03 0.03 93 1012.9
20260509105231 22 360 3.2 9.7 0.00 0.03 0.03 93 1012.9
20260509105132 22 360 4.8 9.7 0.00 0.03 0.03 93 1012.8
20260509105032 22 360 4.8 9.7 0.00 0.03 0.03 93 1012.8
20260509104933 22 360 4.8 9.7 0.00 0.03 0.03 93 1012.8
20260509104833 22 360 4.8 9.7 0.00 0.03 0.03 93 1012.8
20260509104718 22 360 4.8 9.7 0.00 0.03 0.03 93 1012.7
20260509104618 22 360 4.8 8.0 0.00 0.03 0.03 93 1012.7
20260509104518 22 360 4.8 8.0 0.00 0.03 0.03 93 1012.8
20260509104419 22 360 4.8 8.0 0.00 0.03 0.03 93 1012.8
20260509104319 22 22 4.8 8.0 0.00 0.03 0.03 93 1012.8
20260509104219 22 360 6.4 8.0 0.00 0.03 0.03 93 1012.9
20260509104123 22 360 4.8 8.0 0.00 0.03 0.03 93 1012.9
20260509104024 22 360 4.8 8.0 0.00 0.03 0.03 93 1012.9
20260509103924 22 11 4.8 8.0 0.00 0.03 0.03 93 1013.0
20260509103846 22 360 4.8 8.0 0.00 0.03 0.03 93 1012.9
20260509103725 22 360 4.8 8.0 0.00 0.03 0.03 93 1012.9
20260509103624 22 360 4.8 8.0 0.00 0.03 0.03 93 1012.9
20260509103524 22 360 6.4 8.0 0.00 0.03 0.03 93 1012.8
20260509103425 22 360 6.4 8.0 0.00 0.03 0.03 93 1012.8
20260509103330 22 360 6.4 8.0 0.00 0.03 0.03 93 1012.8
20260509103249 22 360 4.8 8.0 0.00 0.03 0.03 93 1012.8
20260509103128 22 360 4.8 8.0 0.00 0.03 0.03 93 1012.8
20260509103028 22 360 4.8 8.0 0.00 0.03 0.03 93 1012.8
20260509102929 22 360 4.8 6.4 0.00 0.03 0.03 93 1012.8
20260509102830 22 360 4.8 6.4 0.00 0.03 0.03 93 1012.8
20260509102730 22 360 4.8 8.0 0.00 0.03 0.03 93 1012.8
20260509102650 22 360 4.8 8.0 0.00 0.03 0.03 93 1012.8
20260509102555 22 360 4.8 8.0 0.00 0.03 0.03 93 1012.8
20260509102434 22 360 4.8 8.0 0.00 0.03 0.03 93 1012.7
20260509102334 22 360 4.8 8.0 0.00 0.03 0.03 93 1012.7
20260509102233 22 360 4.8 8.0 0.00 0.03 0.03 93 1012.7
20260509102133 22 360 4.8 8.0 0.00 0.03 0.03 93 1012.7
20260509102054 22 360 4.8 8.0 0.00 0.03 0.03 93 1012.6
20260509101934 22 360 4.8 8.0 0.00 0.03 0.03 93 1012.6
20260509101818 22 360 4.8 6.4 0.00 0.03 0.03 93 1012.6
20260509101719 22 360 4.8 6.4 0.00 0.03 0.03 93 1012.5
20260509101619 22 360 3.2 6.4 0.00 0.03 0.03 93 1012.5
20260509101520 22 360 3.2 4.8 0.00 0.03 0.03 93 1012.5
20260509101420 22 360 1.6 4.8 0.00 0.03 0.03 93 1012.4
20260509101320 22 360 1.6 4.8 0.00 0.03 0.03 93 1012.5
20260509101220 22 360 0.0 4.8 0.00 0.03 0.03 93 1012.3
20260509101125 22 360 0.0 4.8 0.00 0.03 0.03 93 1012.2
20260509101025 22 360 1.6 4.8 0.00 0.03 0.03 93 1012.3
20260509100926 22 360 1.6 4.8 0.00 0.03 0.03 93 1012.3
20260509100826 22 360 1.6 4.8 0.00 0.03 0.03 93 1012.1
20260509100725 22 360 3.2 4.8 0.00 0.03 0.03 93 1011.9
20260509100626 22 360 3.2 4.8 0.00 0.03 0.03 93 1011.9
20260509100531 22 360 3.2 6.4 0.00 0.03 0.03 93 1011.9
20260509100451 22 360 3.2 6.4 0.00 0.03 0.03 93 1011.8
20260509100331 22 130 3.2 6.4 0.00 0.03 0.03 93 1011.8
20260509100230 22 360 3.2 6.4 0.00 0.03 0.03 92 1011.7
20260509100151 22 360 3.2 6.4 0.00 0.03 0.03 92 1011.7
20260509100028 22 360 3.2 6.4 0.00 0.03 0.03 92 1011.6
20260509095947 22 360 3.2 6.4 0.00 0.03 0.03 92 1011.6
20260509095826 22 360 3.2 6.4 0.00 0.03 0.03 92 1011.6
20260509095729 22 360 3.2 6.4 0.00 0.03 0.03 92 1011.5
20260509095652 22 360 3.2 6.4 0.00 0.03 0.03 93 1011.5
20260509095531 22 360 3.2 6.4 0.00 0.03 0.03 93 1011.5
20260509095432 22 360 3.2 6.4 0.00 0.03 0.03 93 1011.6
20260509095334 22 360 3.2 6.4 0.00 0.03 0.03 93 1011.6
20260509095235 22 360 3.2 6.4 0.00 0.03 0.03 93 1011.5
20260509095136 22 360 3.2 4.8 0.00 0.03 0.03 93 1011.6
20260509095035 22 360 3.2 4.8 0.00 0.03 0.03 93 1011.5
20260509094920 22 360 1.6 4.8 0.00 0.03 0.03 93 1011.6
20260509094820 22 87 1.6 4.8 0.00 0.03 0.03 93 1011.5
20260509094720 22 360 1.6 4.8 0.00 0.03 0.03 93 1011.5
20260509094619 22 360 1.6 4.8 0.00 0.03 0.03 93 1011.4
20260509094519 22 360 1.6 4.8 0.00 0.03 0.03 92 1011.5
20260509094418 22 360 1.6 4.8 0.00 0.03 0.03 92 1011.5
20260509094317 22 360 1.6 4.8 0.00 0.03 0.03 92 1011.5
20260509094222 22 86 1.6 3.2 0.00 0.03 0.03 92 1011.5
20260509094123 22 86 1.6 3.2 0.03 0.03 0.03 92 1011.6
20260509094043 22 360 1.6 3.2 0.03 0.03 0.03 92 1011.6
20260509093922 22 360 1.6 3.2 0.03 0.03 0.03 92 1011.6
20260509093822 22 360 1.6 3.2 0.03 0.03 0.03 92 1011.6
20260509093722 22 360 1.6 3.2 0.03 0.03 0.03 92 1011.6
20260509093622 22 360 1.6 3.2 0.03 0.03 0.03 92 1011.6
20260509093527 22 360 1.6 3.2 0.03 0.03 0.03 92 1011.6
20260509093427 22 360 1.6 3.2 0.03 0.03 0.03 92 1011.6
20260509093327 22 360 1.6 3.2 0.03 0.03 0.03 92 1011.4
20260509093227 22 360 0.0 1.6 0.03 0.03 0.03 92 1011.5
20260509093128 22 360 0.0 1.6 0.03 0.03 0.03 92 1011.4
20260509093029 22 360 0.0 1.6 0.03 0.03 0.03 92 1011.5
20260509092929 22 360 0.0 1.6 0.03 0.03 0.03 92 1011.6
20260509092854 22 360 0.0 1.6 0.03 0.03 0.03 92 1011.5
20260509092734 22 360 0.0 1.6 0.03 0.03 0.03 92 1011.5
20260509092635 22 360 0.0 1.6 0.03 0.03 0.03 92 1011.5
20260509092516 22 360 0.0 1.6 0.03 0.03 0.03 92 1011.4
20260509092417 22 360 0.0 1.6 0.03 0.03 0.03 92 1011.5
20260509092318 22 360 0.0 1.6 0.03 0.03 0.03 92 1011.4
20260509092222 22 360 0.0 1.6 0.03 0.03 0.03 92 1011.5
20260509092123 22 360 0.0 1.6 0.03 0.03 0.03 92 1011.5
20260509092024 22 360 0.0 1.6 0.03 0.03 0.03 92 1011.5
20260509091925 22 360 0.0 3.2 0.03 0.03 0.03 92 1011.6
20260509091825 22 360 0.0 3.2 0.03 0.03 0.03 92 1011.4
20260509091725 22 360 0.0 3.2 0.03 0.03 0.03 92 1011.4
20260509091625 22 360 0.0 3.2 0.03 0.03 0.03 92 1011.5
20260509091530 22 360 1.6 3.2 0.03 0.03 0.03 92 1011.5
20260509091430 22 360 1.6 3.2 0.03 0.03 0.03 92 1011.3
20260509091330 22 360 1.6 3.2 0.03 0.03 0.03 92 1011.4
20260509091231 22 360 1.6 3.2 0.03 0.03 0.03 92 1011.4
20260509091132 22 360 1.6 4.8 0.03 0.03 0.03 92 1011.4
20260509091034 22 360 1.6 4.8 0.03 0.03 0.03 92 1011.4
20260509090937 22 360 1.6 4.8 0.03 0.03 0.03 92 1011.4
20260509090818 22 360 1.6 4.8 0.03 0.03 0.03 92 1011.3
20260509090718 22 360 1.6 4.8 0.03 0.03 0.03 92 1011.4
20260509090618 22 360 1.6 4.8 0.03 0.03 0.03 92 1011.4
20260509090519 22 360 1.6 4.8 0.03 0.03 0.03 92 1011.4
20260509090420 22 80 1.6 4.8 0.03 0.03 0.03 92 1011.4
20260509090320 22 80 1.6 4.8 0.03 0.03 0.03 92 1011.4
20260509090224 22 81 1.6 4.8 0.03 0.03 0.03 92 1011.4
20260509090126 22 360 1.6 4.8 0.03 0.03 0.03 92 1011.4
20260509090025 22 77 0.0 3.2 0.03 0.03 0.03 92 1011.4
20260509085926 22 360 0.0 3.2 0.03 0.03 0.03 92 1011.4
20260509085847 22 360 0.0 1.6 0.03 0.03 0.03 92 1011.4
20260509085725 22 360 0.0 1.6 0.03 0.03 0.03 92 1011.5
20260509085625 22 360 1.6 1.6 0.03 0.03 0.03 92 1011.5
20260509085530 22 360 1.6 1.6 0.03 0.03 0.03 92 1011.5
20260509085431 22 360 1.6 1.6 0.03 0.03 0.03 92 1011.4
20260509085332 22 360 0.0 1.6 0.03 0.03 0.03 92 1011.4
20260509085231 22 360 0.0 1.6 0.03 0.03 0.03 92 1011.4
20260509085132 22 360 0.0 3.2 0.03 0.03 0.03 92 1011.4
20260509085033 22 360 0.0 3.2 0.03 0.03 0.03 92 1011.4
20260509084938 22 360 0.0 4.8 0.03 0.03 0.03 92 1011.4
20260509084838 22 360 0.0 4.8 0.03 0.03 0.03 92 1011.6
20260509084717 22 360 0.0 4.8 0.03 0.03 0.03 92 1011.5
20260509084617 22 360 1.6 4.8 0.03 0.03 0.03 92 1011.5
20260509084518 22 360 1.6 4.8 0.03 0.03 0.03 92 1011.5
20260509084419 22 360 1.6 6.4 0.03 0.03 0.03 92 1011.5
20260509084319 22 360 1.6 6.4 0.03 0.03 0.03 92 1011.4
20260509084225 22 360 3.2 6.4 0.03 0.03 0.03 92 1011.5
20260509084125 22 360 3.2 6.4 0.00 0.00 0.00 92 1011.6
20260509084026 22 77 3.2 6.4 0.00 0.00 0.00 92 1011.6
20260509083946 22 360 3.2 6.4 0.00 0.00 0.00 92 1011.5
20260509083826 22 360 3.2 6.4 0.00 0.00 0.00 92 1011.5
20260509083727 22 360 3.2 6.4 0.00 0.00 0.00 92 1011.6
20260509083647 22 74 3.2 6.4 0.00 0.00 0.00 92 1011.5
20260509083527 22 74 3.2 4.8 0.00 0.00 0.00 92 1011.5
20260509083431 22 360 3.2 4.8 0.00 0.00 0.00 92 1011.6
20260509083332 22 360 1.6 4.8 0.00 0.00 0.00 92 1011.7
20260509083233 22 68 1.6 4.8 0.00 0.00 0.00 92 1011.8
20260509083134 22 360 1.6 4.8 0.00 0.00 0.00 92 1011.8
20260509083033 22 360 1.6 4.8 0.00 0.00 0.00 92 1011.8
20260509082954 22 360 1.6 0.0 0.00 0.00 0.00 92 1011.8
20260509082853 22 29 1.6 0.0 0.00 0.00 0.00 91 1011.8
20260509082815 22 360 1.6 4.8 0.00 0.00 0.00 91 1011.8
20260509082241 22 30 1.6 4.8 0.00 0.00 0.00 91 1011.8
20260509082133 22 30 1.6 4.8 0.00 0.00 0.00 91 1011.8
20260509082034 22 30 1.6 4.8 0.00 0.00 0.00 91 1011.8
20260509081933 22 30 1.6 4.8 0.00 0.00 0.00 91 1011.8
20260509081854 22 360 1.6 4.8 0.00 0.00 0.00 91 1011.8
20260509081734 22 26 1.6 6.4 0.00 0.00 0.00 91 1011.8
20260509081618 22 360 1.6 6.4 0.00 0.00 0.00 91 1011.8
20260509081518 22 360 1.6 6.4 0.00 0.00 0.00 91 1011.9
20260509081439 22 30 1.6 6.4 0.00 0.00 0.00 91 1012.0
20260509081318 22 360 1.6 6.4 0.00 0.00 0.00 91 1012.1
20260509081238 22 360 1.6 6.4 0.00 0.00 0.00 91 1012.0
20260509081138 22 360 1.6 6.4 0.00 0.00 0.00 91 1012.0
20260509081017 22 360 1.6 6.4 0.00 0.00 0.00 91 1011.9
20260509080938 22 360 3.2 6.4 0.00 0.00 0.00 91 1011.9
20260509080837 22 360 3.2 6.4 0.00 0.00 0.00 91 1011.9
20260509080720 22 30 3.2 6.4 0.00 0.00 0.00 91 1011.9
20260509080621 22 27 3.2 6.4 0.00 0.00 0.00 91 1011.8
20260509080522 22 29 3.2 6.4 0.00 0.00 0.00 91 1011.8
20260509080442 22 360 3.2 6.4 0.00 0.00 0.00 91 1011.8
20260509080322 22 360 3.2 6.4 0.00 0.00 0.00 91 1011.7
20260509080224 22 360 3.2 6.4 0.00 0.00 0.00 91 1011.6
20260509080145 22 360 3.2 6.4 0.00 0.00 0.00 91 1011.6
20260509080027 22 360 3.2 6.4 0.00 0.00 0.00 91 1011.6
20260509075928 22 360 3.2 6.4 0.00 0.00 0.00 91 1011.7
20260509075848 22 360 3.2 6.4 0.00 0.00 0.00 91 1011.6
20260509075729 22 360 3.2 6.4 0.00 0.00 0.00 91 1011.6
20260509075629 22 360 1.6 6.4 0.00 0.00 0.00 91 1011.5
20260509075528 22 360 1.6 6.4 0.00 0.00 0.00 91 1011.6
20260509075429 22 360 1.6 4.8 0.00 0.00 0.00 91 1011.6
20260509075351 22 360 1.6 4.8 0.00 0.00 0.00 91 1011.6
20260509075235 22 360 1.6 4.8 0.00 0.00 0.00 91 1011.6
20260509075135 22 360 1.6 4.8 0.00 0.00 0.00 91 1011.7
20260509075035 22 360 1.6 4.8 0.00 0.00 0.00 91 1011.6
20260509074935 22 360 1.6 4.8 0.00 0.00 0.00 91 1011.7
20260509074855 22 360 1.6 4.8 0.00 0.00 0.00 91 1011.6
20260509074733 22 360 1.6 4.8 0.00 0.00 0.00 91 1011.6
20260509074633 22 360 1.6 4.8 0.00 0.00 0.00 91 1011.6
20260509074518 22 360 1.6 4.8 0.00 0.00 0.00 91 1011.6
20260509074419 22 360 1.6 4.8 0.00 0.00 0.00 91 1011.5
20260509074320 22 360 1.6 4.8 0.00 0.00 0.00 91 1011.5
20260509074221 22 360 1.6 4.8 0.00 0.00 0.00 91 1011.6
20260509074123 22 360 1.6 4.8 0.00 0.00 0.00 91 1011.7
20260509074023 22 360 1.6 4.8 0.00 0.00 0.00 91 1011.6
20260509073927 22 360 1.6 4.8 0.00 0.00 0.00 91 1011.6
20260509073828 22 360 1.6 4.8 0.00 0.00 0.00 91 1011.6
20260509073730 22 360 1.6 4.8 0.00 0.00 0.00 91 1011.7
20260509073632 22 360 1.6 4.8 0.00 0.00 0.00 91 1011.6
20260509073533 22 360 1.6 4.8 0.00 0.00 0.00 91 1011.6
20260509073434 22 360 1.6 4.8 0.00 0.00 0.00 91 1011.6
20260509073334 22 360 1.6 4.8 0.00 0.00 0.00 91 1011.6
20260509073219 22 360 1.6 4.8 0.00 0.00 0.00 91 1011.4
20260509073119 22 360 1.6 4.8 0.00 0.00 0.00 91 1011.5
20260509073040 22 360 1.6 4.8 0.00 0.00 0.00 91 1011.5
20260509072920 22 360 1.6 4.8 0.00 0.00 0.00 91 1011.6
20260509072822 22 360 3.2 4.8 0.00 0.00 0.00 91 1011.6
20260509072743 22 360 3.2 6.4 0.00 0.00 0.00 91 1011.7
20260509072623 22 360 3.2 6.4 0.00 0.00 0.00 91 1011.7
20260509072527 22 360 3.2 6.4 0.00 0.00 0.00 91 1011.7
20260509072448 22 360 3.2 6.4 0.00 0.00 0.00 91 1011.7
20260509072328 22 360 4.8 6.4 0.00 0.00 0.00 91 1011.7
20260509072249 22 360 4.8 8.0 0.00 0.00 0.00 91 1011.8
20260509072130 22 360 4.8 8.0 0.00 0.00 0.00 91 1011.7
20260509072030 22 360 4.8 8.0 0.00 0.00 0.00 91 1011.8
20260509071931 22 360 4.8 8.0 0.00 0.00 0.00 91 1011.7
20260509071833 22 360 4.8 8.0 0.00 0.00 0.00 91 1011.8
20260509071757 22 360 4.8 8.0 0.00 0.00 0.00 91 1011.7
20260509071656 22 360 4.8 8.0 0.00 0.00 0.00 90 1011.8
20260509071516 22 360 4.8 8.0 0.00 0.00 0.00 90 1011.7
20260509071418 22 360 4.8 8.0 0.00 0.00 0.00 90 1011.8
20260509071318 22 360 4.8 8.0 0.00 0.00 0.00 90 1011.7
20260509071219 22 360 4.8 8.0 0.00 0.00 0.00 90 1011.7
20260509071119 22 360 4.8 8.0 0.00 0.00 0.00 90 1011.8
20260509071040 22 360 4.8 8.0 0.00 0.00 0.00 90 1011.8
20260509070922 22 360 4.8 9.7 0.00 0.00 0.00 90 1011.8
20260509070843 22 360 4.8 9.7 0.00 0.00 0.00 90 1011.7
20260509070722 22 360 4.8 9.7 0.00 0.00 0.00 90 1011.8
20260509070622 22 360 4.8 9.7 0.00 0.00 0.00 90 1011.8
20260509070543 22 360 4.8 9.7 0.00 0.00 0.00 90 1011.8
20260509070424 22 360 4.8 9.7 0.00 0.00 0.00 90 1011.8
20260509070325 22 360 4.8 9.7 0.00 0.00 0.00 90 1011.8
20260509070226 22 360 4.8 9.7 0.00 0.00 0.00 90 1011.8
20260509070131 22 360 4.8 12.9 0.00 0.00 0.00 90 1011.9
20260509070029 22 360 4.8 16.1 0.00 0.00 0.00 90 1011.8
20260509065929 22 360 4.8 16.1 0.00 0.00 0.00 90 1011.7
20260509065827 22 360 4.8 16.1 0.00 0.00 0.00 90 1011.8
20260509065729 22 360 4.8 16.1 0.00 0.00 0.00 90 1011.8
20260509065629 22 360 4.8 16.1 0.00 0.00 0.00 90 1011.8
20260509065550 22 360 4.8 16.1 0.00 0.00 0.00 90 1011.9
20260509065430 22 360 6.4 16.1 0.00 0.00 0.00 90 1011.9
20260509065316 22 360 8.0 16.1 0.00 0.00 0.00 90 1011.8
20260509065216 22 360 8.0 16.1 0.00 0.00 0.00 90 1011.9
20260509065138 22 360 6.4 16.1 0.00 0.00 0.00 90 1011.9
20260509065018 22 360 6.4 14.5 0.00 0.00 0.00 90 1011.9
20260509064917 22 360 6.4 14.5 0.00 0.00 0.00 90 1011.9
20260509064818 22 360 6.4 14.5 0.00 0.00 0.00 90 1011.9
20260509064719 22 360 6.4 14.5 0.00 0.00 0.00 90 1011.9
20260509064624 22 360 6.4 14.5 0.00 0.00 0.00 90 1011.8
20260509064524 22 360 6.4 12.9 0.00 0.00 0.00 90 1011.9
20260509064423 22 360 6.4 12.9 0.00 0.00 0.00 90 1011.8
20260509064344 22 360 6.4 12.9 0.00 0.00 0.00 90 1011.7
20260509064243 22 360 6.4 12.9 0.00 0.00 0.00 90 1011.7
20260509064142 22 360 6.4 12.9 0.00 0.00 0.00 90 1011.7
20260509064016 22 360 6.4 12.9 0.00 0.00 0.00 90 1011.6
20260509063917 22 360 6.4 14.5 0.00 0.00 0.00 90 1011.6
20260509063816 22 360 4.8 14.5 0.00 0.00 0.00 90 1011.6
20260509063721 22 360 6.4 14.5 0.00 0.00 0.00 90 1011.5
20260509063620 22 360 6.4 14.5 0.00 0.00 0.00 90 1011.4
20260509063521 22 360 6.4 16.1 0.00 0.00 0.00 90 1011.4
20260509063442 22 360 6.4 16.1 0.00 0.00 0.00 90 1011.4
20260509063321 22 360 8.0 16.1 0.00 0.00 0.00 90 1011.5
20260509063241 22 360 8.0 20.9 0.00 0.00 0.00 90 1011.5
20260509063122 22 360 9.7 20.9 0.00 0.00 0.00 90 1011.5
20260509063022 22 360 9.7 20.9 0.00 0.00 0.00 90 1011.5
20260509062927 22 360 9.7 20.9 0.00 0.00 0.00 90 1011.5
20260509062828 22 360 11.3 20.9 0.00 0.00 0.00 90 1011.5
20260509062749 22 360 11.3 20.9 0.00 0.00 0.00 90 1011.4
20260509062626 22 360 11.3 20.9 0.00 0.00 0.00 90 1011.5
20260509062526 22 360 11.3 20.9 0.00 0.00 0.00 90 1011.4
20260509062426 22 360 11.3 19.3 0.00 0.00 0.00 89 1011.5
20260509062327 22 360 11.3 19.3 0.00 0.00 0.00 89 1011.5
20260509062230 22 360 9.7 19.3 0.00 0.00 0.00 89 1011.5
20260509062131 22 360 9.7 19.3 0.00 0.00 0.00 89 1011.5
20260509062033 22 360 8.0 16.1 0.00 0.00 0.00 89 1011.6
20260509061933 22 360 9.7 16.1 0.00 0.00 0.00 89 1011.5
20260509061833 22 360 8.0 19.3 0.00 0.00 0.00 89 1011.6
20260509061733 22 360 8.0 19.3 0.00 0.00 0.00 89 1011.6
20260509061618 22 360 8.0 20.9 0.00 0.00 0.00 89 1011.5
20260509061518 22 360 8.0 20.9 0.00 0.00 0.00 89 1011.6
20260509061419 22 360 8.0 20.9 0.00 0.00 0.00 89 1011.6
20260509061319 22 360 8.0 20.9 0.00 0.00 0.00 89 1011.4
20260509061220 22 360 8.0 20.9 0.00 0.00 0.00 89 1011.4
20260509061120 22 360 8.0 20.9 0.00 0.00 0.00 89 1011.3
20260509061020 22 360 8.0 20.9 0.00 0.00 0.00 89 1011.3
20260509060925 22 360 8.0 20.9 0.00 0.00 0.00 89 1011.3
20260509060826 22 360 9.7 20.9 0.00 0.00 0.00 89 1011.3
20260509060727 22 360 9.7 20.9 0.00 0.00 0.00 89 1011.4
20260509060627 22 360 9.7 20.9 0.00 0.00 0.00 89 1011.4
20260509060527 22 360 9.7 20.9 0.00 0.00 0.00 89 1011.3
20260509060428 22 360 11.3 24.1 0.00 0.00 0.00 89 1011.4
20260509060332 22 360 9.7 24.1 0.00 0.00 0.00 89 1011.4
20260509060233 22 360 9.7 24.1 0.00 0.00 0.00 89 1011.4
20260509060134 22 360 8.0 24.1 0.00 0.00 0.00 89 1011.4
20260509060054 22 360 9.7 24.1 0.00 0.00 0.00 89 1011.4
20260509055934 22 360 9.7 24.1 0.00 0.00 0.00 89 1011.4
20260509055834 22 360 11.3 24.1 0.00 0.00 0.00 89 1011.4
20260509055735 22 360 11.3 24.1 0.00 0.00 0.00 89 1011.4
20260509055619 22 360 12.9 24.1 0.00 0.00 0.00 89 1011.4
20260509055519 22 360 14.5 24.1 0.00 0.00 0.00 89 1011.4
20260509055420 22 360 14.5 24.1 0.00 0.00 0.00 89 1011.3
20260509055321 22 360 14.5 24.1 0.00 0.00 0.00 89 1011.3
20260509055220 22 360 14.5 29.0 0.00 0.00 0.00 89 1011.4
20260509055141 22 360 12.9 29.0 0.00 0.00 0.00 89 1011.4
20260509055041 22 360 12.9 29.0 0.00 0.00 0.00 89 1011.3
20260509054924 22 360 11.3 29.0 0.00 0.00 0.00 88 1011.3
20260509054825 22 360 11.3 29.0 0.00 0.00 0.00 88 1011.2
20260509054725 22 360 11.3 29.0 0.00 0.00 0.00 88 1011.3
20260509054624 22 360 11.3 29.0 0.00 0.00 0.00 88 1011.3
20260509054525 22 360 12.9 29.0 0.00 0.00 0.00 88 1011.3
20260509054426 22 360 12.9 29.0 0.00 0.00 0.00 88 1011.3
20260509054346 22 360 11.3 29.0 0.00 0.00 0.00 88 1011.2
20260509054226 22 360 9.7 29.0 0.00 0.00 0.00 88 1011.3
20260509054151 22 360 11.3 29.0 0.00 0.00 0.00 88 1011.3
20260509054050 22 360 9.7 20.9 0.00 0.00 0.00 88 1011.3
20260509053929 22 360 9.7 20.9 0.00 0.00 0.00 88 1011.3
20260509053828 22 360 9.7 20.9 0.00 0.00 0.00 88 1011.2
20260509053729 22 360 9.7 20.9 0.00 0.00 0.00 88 1011.3
20260509053629 22 360 9.7 20.9 0.00 0.00 0.00 88 1011.3
20260509053529 22 360 9.7 20.9 0.00 0.00 0.00 88 1011.3
20260509053449 22 360 8.0 20.9 0.00 0.00 0.00 88 1011.3
20260509053327 22 360 9.7 25.7 0.00 0.00 0.00 88 1011.3
20260509053252 22 360 8.0 25.7 0.00 0.00 0.00 88 1011.3
20260509053131 22 360 9.7 25.7 0.00 0.00 0.00 88 1011.3
20260509053031 22 360 9.7 25.7 0.00 0.00 0.00 88 1011.3
20260509052932 22 360 11.3 25.7 0.00 0.00 0.00 88 1011.3
20260509052833 22 360 11.3 25.7 0.00 0.00 0.00 88 1011.3
20260509052735 22 360 11.3 25.7 0.00 0.00 0.00 88 1011.2
20260509052618 22 360 11.3 25.7 0.00 0.00 0.00 88 1011.3
20260509052518 22 360 11.3 25.7 0.00 0.00 0.00 88 1011.2
20260509052419 22 360 11.3 25.7 0.00 0.00 0.00 88 1011.2
20260509052320 22 360 9.7 25.7 0.00 0.00 0.00 88 1011.2
20260509052220 22 360 9.7 25.7 0.00 0.00 0.00 88 1011.3
20260509052121 22 360 9.7 20.9 0.00 0.00 0.00 88 1011.2
20260509052021 22 360 8.0 20.9 0.00 0.00 0.00 88 1011.3
20260509051926 22 360 8.0 20.9 0.00 0.00 0.00 88 1011.2
20260509051826 22 360 8.0 20.9 0.00 0.00 0.00 88 1011.3
20260509051727 22 360 9.7 20.9 0.00 0.00 0.00 88 1011.3
20260509051627 22 360 9.7 20.9 0.00 0.00 0.00 88 1011.3
20260509051525 22 360 11.3 20.9 0.00 0.00 0.00 88 1011.2
20260509051426 22 360 11.3 20.9 0.00 0.00 0.00 88 1011.2
20260509051326 22 360 11.3 20.9 0.00 0.00 0.00 88 1011.2
20260509051251 22 360 12.9 20.9 0.00 0.00 0.00 88 1011.2
20260509051150 22 360 12.9 20.9 0.00 0.00 0.00 88 1011.0
20260509051030 22 360 12.9 20.9 0.00 0.00 0.00 88 1010.9
20260509050930 22 360 12.9 20.9 0.00 0.00 0.00 88 1010.9
20260509050831 22 360 14.5 22.5 0.00 0.00 0.00 88 1010.9
20260509050731 22 360 14.5 22.5 0.00 0.00 0.00 88 1010.9
20260509050652 22 360 14.5 22.5 0.00 0.00 0.00 88 1010.9
20260509050531 22 360 14.5 22.5 0.00 0.00 0.00 88 1010.8
20260509050435 22 360 14.5 22.5 0.00 0.00 0.00 88 1010.9
20260509050316 22 360 12.9 22.5 0.00 0.00 0.00 88 1010.8
20260509050217 22 360 12.9 22.5 0.00 0.00 0.00 88 1011.0
20260509050117 22 360 11.3 22.5 0.00 0.00 0.00 88 1010.9
20260509050038 22 360 11.3 22.5 0.00 0.00 0.00 88 1010.9
20260509045952 22 360 9.7 19.3 0.00 0.00 0.00 88 1011.0
20260509045831 22 360 9.7 19.3 0.00 0.00 0.00 88 1010.9
20260509045736 22 360 9.7 19.3 0.00 0.00 0.00 88 1010.9
20260509045635 22 360 9.7 19.3 0.00 0.00 0.00 88 1011.0
20260509045555 22 360 9.7 19.3 0.00 0.00 0.00 88 1011.0
20260509045455 22 360 9.7 19.3 0.00 0.00 0.00 88 1011.0
20260509045334 22 360 11.3 19.3 0.00 0.00 0.00 88 1011.0
20260509045234 22 360 11.3 19.3 0.00 0.00 0.00 88 1011.0
20260509045134 22 360 12.9 20.9 0.00 0.00 0.00 88 1011.0
20260509045056 22 360 12.9 20.9 0.00 0.00 0.00 88 1011.0
20260509044918 22 360 12.9 20.9 0.00 0.00 0.00 88 1010.8
20260509044819 22 360 14.5 20.9 0.00 0.00 0.00 88 1010.9
20260509044718 22 360 12.9 20.9 0.00 0.00 0.00 88 1010.8
20260509044619 22 360 12.9 20.9 0.00 0.00 0.00 88 1010.9
20260509044519 22 360 12.9 20.9 0.00 0.00 0.00 88 1010.8
20260509044438 22 360 11.3 20.9 0.00 0.00 0.00 88 1010.9
20260509044338 22 360 11.3 20.9 0.00 0.00 0.00 88 1010.9
20260509044217 22 360 11.3 19.3 0.00 0.00 0.00 88 1010.8
20260509044122 22 360 11.3 19.3 0.00 0.00 0.00 88 1010.8
20260509044022 22 360 11.3 19.3 0.00 0.00 0.00 88 1010.9
20260509043921 22 360 11.3 22.5 0.00 0.00 0.00 88 1010.9
20260509043822 22 360 11.3 22.5 0.00 0.00 0.00 88 1011.0
20260509043743 22 360 11.3 22.5 0.00 0.00 0.00 88 1011.0
20260509043623 22 360 11.3 22.5 0.00 0.00 0.00 88 1011.0
20260509043523 22 360 12.9 22.5 0.00 0.00 0.00 88 1011.0
20260509043423 22 360 12.9 22.5 0.00 0.00 0.00 88 1011.0
20260509043349 22 360 12.9 22.5 0.00 0.00 0.00 88 1011.0
20260509043228 22 360 12.9 22.5 0.00 0.00 0.00 88 1011.0
20260509043129 22 360 12.9 22.5 0.00 0.00 0.00 88 1010.9
20260509043029 22 360 12.9 22.5 0.00 0.00 0.00 88 1010.9
20260509042930 22 360 12.9 22.5 0.00 0.00 0.00 88 1010.9
20260509042831 22 360 12.9 22.5 0.00 0.00 0.00 88 1010.9
20260509042732 22 360 12.9 22.5 0.00 0.00 0.00 88 1010.9
20260509042616 22 360 12.9 22.5 0.00 0.00 0.00 88 1010.9
20260509042517 22 360 11.3 22.5 0.00 0.00 0.00 88 1011.0
20260509042417 22 360 11.3 22.5 0.00 0.00 0.00 88 1011.0
20260509042317 22 360 11.3 22.5 0.00 0.00 0.00 87 1011.0
20260509042218 22 360 11.3 22.5 0.00 0.00 0.00 87 1011.1
20260509042119 22 360 11.3 17.7 0.00 0.00 0.00 87 1011.1
20260509042022 22 360 11.3 17.7 0.00 0.00 0.00 87 1011.1
20260509041923 22 360 11.3 17.7 0.00 0.00 0.00 88 1011.1
20260509041823 22 360 11.3 17.7 0.00 0.00 0.00 88 1011.1
20260509041723 22 360 11.3 17.7 0.00 0.00 0.00 88 1011.2
20260509041623 22 360 9.7 17.7 0.00 0.00 0.00 87 1011.1
20260509041523 22 360 11.3 17.7 0.00 0.00 0.00 87 1011.1
20260509041422 22 360 9.7 17.7 0.00 0.00 0.00 87 1011.1
20260509041323 22 360 9.7 17.7 0.00 0.00 0.00 87 1011.1
20260509041248 22 360 9.7 17.7 0.00 0.00 0.00 87 1011.1
20260509041146 22 360 9.7 17.7 0.00 0.00 0.00 87 1011.1
20260509041026 22 360 9.7 17.7 0.00 0.00 0.00 87 1011.2
20260509040928 22 360 9.7 17.7 0.00 0.00 0.00 87 1011.2
20260509040828 22 360 9.7 17.7 0.00 0.00 0.00 87 1011.2
20260509040729 22 360 8.0 16.1 0.00 0.00 0.00 87 1011.2
20260509040627 22 360 8.0 16.1 0.00 0.00 0.00 87 1011.2
20260509040547 22 360 8.0 16.1 0.00 0.00 0.00 87 1011.2
20260509040431 22 360 8.0 16.1 0.00 0.00 0.00 87 1011.2
20260509040331 22 360 8.0 14.5 0.00 0.00 0.00 87 1011.3
20260509040231 22 360 6.4 12.9 0.00 0.00 0.00 87 1011.3
20260509040132 22 360 6.4 12.9 0.00 0.00 0.00 87 1011.3
20260509040033 22 360 8.0 12.9 0.00 0.00 0.00 87 1011.3
20260509035934 22 360 6.4 12.9 0.00 0.00 0.00 87 1011.3
20260509035819 22 360 6.4 12.9 0.00 0.00 0.00 87 1011.3
20260509035719 22 360 6.4 12.9 0.00 0.00 0.00 87 1011.4
20260509035618 22 360 6.4 12.9 0.00 0.00 0.00 87 1011.4
20260509035519 22 360 6.4 12.9 0.00 0.00 0.00 87 1011.3
20260509035419 22 360 6.4 12.9 0.00 0.00 0.00 87 1011.4
20260509035320 22 360 4.8 9.7 0.00 0.00 0.00 86 1011.4
20260509035241 22 360 4.8 9.7 0.00 0.00 0.00 86 1011.4
20260509035120 22 360 4.8 8.0 0.00 0.00 0.00 86 1011.4
20260509035025 22 360 4.8 9.7 0.00 0.00 0.00 86 1011.3
20260509034925 22 360 4.8 9.7 0.00 0.00 0.00 86 1011.3
20260509034846 22 360 4.8 9.7 0.00 0.00 0.00 86 1011.3
20260509034746 22 360 4.8 9.7 0.00 0.00 0.00 86 1011.3
20260509034624 22 360 4.8 9.7 0.00 0.00 0.00 86 1011.4
20260509034525 22 360 4.8 9.7 0.00 0.00 0.00 86 1011.3
20260509034426 22 360 4.8 9.7 0.00 0.00 0.00 86 1011.3
20260509034330 22 360 4.8 9.7 0.00 0.00 0.00 86 1011.3
20260509034230 22 360 3.2 9.7 0.00 0.00 0.00 86 1011.3
20260509034131 22 360 3.2 6.4 0.00 0.00 0.00 86 1011.3
20260509034030 22 360 3.2 6.4 0.00 0.00 0.00 86 1011.3
20260509033931 22 360 3.2 6.4 0.00 0.00 0.00 86 1011.2
20260509033831 22 360 3.2 6.4 0.00 0.00 0.00 86 1011.2
20260509033732 22 360 3.2 8.0 0.00 0.00 0.00 86 1011.3
20260509033616 22 360 3.2 8.0 0.00 0.00 0.00 86 1011.3
20260509033517 22 360 3.2 8.0 0.00 0.00 0.00 86 1011.3
20260509033418 22 360 3.2 8.0 0.00 0.00 0.00 86 1011.4
20260509033318 22 360 3.2 8.0 0.00 0.00 0.00 86 1011.3
20260509033220 22 360 3.2 8.0 0.00 0.00 0.00 86 1011.3
20260509033140 22 360 3.2 8.0 0.00 0.00 0.00 86 1011.4
20260509033021 22 360 3.2 8.0 0.00 0.00 0.00 86 1011.4
20260509032923 22 360 3.2 8.0 0.00 0.00 0.00 86 1011.4
20260509032825 22 360 3.2 8.0 0.00 0.00 0.00 86 1011.3
20260509032725 22 360 3.2 8.0 0.00 0.00 0.00 86 1011.3
20260509032626 22 360 3.2 8.0 0.00 0.00 0.00 86 1011.2
20260509032526 22 360 3.2 8.0 0.00 0.00 0.00 86 1011.2
20260509032427 22 360 3.2 6.4 0.00 0.00 0.00 86 1011.2
20260509032327 23 360 3.2 6.4 0.00 0.00 0.00 85 1011.3
20260509032231 23 360 3.2 6.4 0.00 0.00 0.00 85 1011.3
20260509032132 22 360 3.2 6.4 0.00 0.00 0.00 85 1011.2
20260509032035 23 360 3.2 6.4 0.00 0.00 0.00 85 1011.3
20260509031933 23 360 3.2 6.4 0.00 0.00 0.00 85 1011.2
20260509031835 23 360 3.2 6.4 0.00 0.00 0.00 85 1011.3
20260509031735 23 360 3.2 6.4 0.00 0.00 0.00 85 1011.3
20260509031655 23 360 4.8 8.0 0.00 0.00 0.00 85 1011.2
20260509031519 23 360 4.8 9.7 0.00 0.00 0.00 85 1011.3
20260509031419 23 360 4.8 9.7 0.00 0.00 0.00 85 1011.3
20260509031319 23 360 4.8 9.7 0.00 0.00 0.00 85 1011.2
20260509031220 23 360 4.8 9.7 0.00 0.00 0.00 85 1011.2
20260509031120 23 360 6.4 9.7 0.00 0.00 0.00 85 1011.2
20260509031020 23 360 6.4 9.7 0.00 0.00 0.00 85 1011.2
20260509030941 23 360 6.4 9.7 0.00 0.00 0.00 85 1011.1
20260509030824 23 360 6.4 9.7 0.00 0.00 0.00 85 1011.2
20260509030725 23 360 6.4 9.7 0.00 0.00 0.00 85 1011.2
20260509030624 23 360 6.4 9.7 0.00 0.00 0.00 85 1011.1
20260509030524 23 360 6.4 9.7 0.00 0.00 0.00 85 1011.1
20260509030424 23 360 6.4 9.7 0.00 0.00 0.00 85 1011.1
20260509030325 23 360 6.4 9.7 0.00 0.00 0.00 85 1011.0
20260509030226 23 360 6.4 9.7 0.00 0.00 0.00 85 1011.0
20260509030150 23 360 6.4 9.7 0.00 0.00 0.00 85 1011.0
20260509030110 23 360 6.4 9.7 0.00 0.00 0.00 85 1010.9
20260509025827 23 360 6.4 9.7 0.00 0.00 0.00 84 1010.8
20260509025729 23 360 6.4 9.7 0.00 0.00 0.00 84 1011.0
20260509025629 23 360 6.4 9.7 0.00 0.00 0.00 84 1010.9
20260509025550 23 360 6.4 9.7 0.00 0.00 0.00 84 1010.8
20260509025428 23 360 6.4 9.7 0.00 0.00 0.00 84 1010.8
20260509025329 23 360 6.4 9.7 0.00 0.00 0.00 84 1010.8
20260509025232 23 360 6.4 9.7 0.00 0.00 0.00 84 1010.8
20260509025132 23 360 4.8 9.7 0.00 0.00 0.00 84 1010.8
20260509025053 23 360 4.8 8.0 0.00 0.00 0.00 84 1010.7
20260509024953 23 360 4.8 8.0 0.00 0.00 0.00 84 1010.8
20260509024832 23 360 3.2 8.0 0.00 0.00 0.00 84 1010.8
20260509024753 23 360 3.2 8.0 0.00 0.00 0.00 84 1010.8
20260509024633 23 360 3.2 8.0 0.00 0.00 0.00 84 1010.9
20260509024517 23 360 4.8 8.0 0.00 0.00 0.00 84 1010.8
20260509024417 23 360 4.8 8.0 0.00 0.00 0.00 84 1010.7
20260509024338 23 360 4.8 8.0 0.00 0.00 0.00 84 1010.7
20260509024217 23 360 4.8 8.0 0.00 0.00 0.00 84 1010.8
20260509024117 23 360 4.8 8.0 0.00 0.00 0.00 84 1010.7
20260509024018 23 360 4.8 8.0 0.00 0.00 0.00 83 1010.7
20260509023918 23 360 4.8 8.0 0.00 0.00 0.00 83 1010.7
20260509023823 23 360 4.8 8.0 0.00 0.00 0.00 83 1010.7
20260509023723 23 360 4.8 8.0 0.00 0.00 0.00 83 1010.6
20260509023622 23 360 4.8 8.0 0.00 0.00 0.00 83 1010.7
20260509023520 23 360 4.8 8.0 0.00 0.00 0.00 83 1010.8
20260509023421 23 360 4.8 8.0 0.00 0.00 0.00 83 1010.7
20260509023321 23 360 4.8 8.0 0.00 0.00 0.00 83 1010.8
20260509023242 23 360 4.8 8.0 0.00 0.00 0.00 83 1010.8
20260509023121 23 360 4.8 8.0 0.00 0.00 0.00 83 1010.8
20260509023025 23 360 4.8 8.0 0.00 0.00 0.00 83 1010.8
20260509022946 23 360 3.2 8.0 0.00 0.00 0.00 83 1010.8
20260509022847 23 360 3.2 8.0 0.00 0.00 0.00 83 1010.8
20260509022745 23 360 3.2 6.4 0.00 0.00 0.00 83 1010.7
20260509022645 23 360 3.2 4.8 0.00 0.00 0.00 83 1010.7
20260509022524 23 360 1.6 4.8 0.00 0.00 0.00 83 1010.8
20260509022424 23 360 1.6 4.8 0.00 0.00 0.00 83 1010.8
20260509022325 23 360 1.6 4.8 0.00 0.00 0.00 83 1010.8
20260509022224 23 360 1.6 4.8 0.00 0.00 0.00 83 1010.7
20260509022149 23 360 1.6 4.8 0.00 0.00 0.00 83 1010.7
20260509022028 23 360 1.6 4.8 0.00 0.00 0.00 83 1010.8
20260509021929 23 360 1.6 4.8 0.00 0.00 0.00 83 1010.8
20260509021828 23 360 3.2 4.8 0.00 0.00 0.00 83 1010.8
20260509021729 23 360 3.2 9.7 0.00 0.00 0.00 83 1010.7
20260509021628 23 360 3.2 9.7 0.00 0.00 0.00 83 1010.8
20260509021529 23 360 3.2 9.7 0.00 0.00 0.00 83 1010.7
20260509021432 23 360 3.2 9.7 0.00 0.00 0.00 83 1010.6
20260509021333 23 360 3.2 9.7 0.00 0.00 0.00 82 1010.7
20260509021234 23 360 3.2 9.7 0.00 0.00 0.00 82 1010.5
20260509021135 23 360 3.2 9.7 0.00 0.00 0.00 82 1010.5
20260509021035 23 360 3.2 17.7 0.00 0.00 0.00 82 1010.5
20260509020935 23 360 4.8 17.7 0.00 0.00 0.00 82 1010.5
20260509020819 23 360 4.8 17.7 0.00 0.00 0.00 82 1010.4
20260509020740 23 360 4.8 17.7 0.00 0.00 0.00 82 1010.4
20260509020619 23 360 6.4 17.7 0.00 0.00 0.00 82 1010.4
20260509020520 23 360 6.4 17.7 0.00 0.00 0.00 82 1010.4
20260509020440 23 360 6.4 22.5 0.00 0.00 0.00 82 1010.3
20260509020319 23 360 6.4 22.5 0.00 0.00 0.00 82 1010.3
20260509020219 23 360 8.0 22.5 0.00 0.00 0.00 82 1010.3
20260509020119 23 360 8.0 22.5 0.00 0.00 0.00 82 1010.2
20260509020019 23 360 9.7 22.5 0.00 0.00 0.00 82 1010.2
20260509015923 23 360 9.7 22.5 0.00 0.00 0.00 82 1010.2
20260509015827 23 360 11.3 22.5 0.00 0.00 0.00 82 1010.2
20260509015725 23 360 11.3 22.5 0.00 0.00 0.00 82 1010.2
20260509015646 23 360 11.3 22.5 0.00 0.00 0.00 82 1010.1
20260509015525 23 360 11.3 20.9 0.00 0.00 0.00 82 1010.1
20260509015425 23 360 12.9 20.9 0.00 0.00 0.00 82 1010.1
20260509015346 23 360 12.9 20.9 0.00 0.00 0.00 82 1010.0
20260509015230 23 360 11.3 20.9 0.00 0.00 0.00 82 1010.0
20260509015131 24 360 11.3 20.9 0.00 0.00 0.00 81 1010.0
20260509015030 24 360 11.3 19.3 0.00 0.00 0.00 81 1010.0
20260509014932 24 360 9.7 19.3 0.00 0.00 0.00 81 1009.9
20260509014832 24 360 9.7 19.3 0.00 0.00 0.00 81 1010.0
20260509014753 24 360 9.7 19.3 0.00 0.00 0.00 81 1010.0
20260509014631 24 360 9.7 19.3 0.00 0.00 0.00 81 1010.0
20260509014530 24 360 9.7 19.3 0.00 0.00 0.00 81 1009.9
20260509014434 24 360 9.7 19.3 0.00 0.00 0.00 81 1010.0
20260509014335 24 360 9.7 19.3 0.00 0.00 0.00 81 1010.0
20260509014235 24 360 9.7 19.3 0.00 0.00 0.00 81 1010.0
20260509014155 24 360 9.7 16.1 0.00 0.00 0.00 81 1009.9
20260509014054 24 360 8.0 16.1 0.00 0.00 0.00 81 1009.9
20260509013933 24 360 8.0 16.1 0.00 0.00 0.00 81 1010.0
20260509013833 24 360 8.0 16.1 0.00 0.00 0.00 81 1009.9
20260509013732 24 360 8.0 16.1 0.00 0.00 0.00 81 1010.0
20260509013631 24 360 8.0 16.1 0.00 0.00 0.00 81 1010.0
20260509013535 24 360 8.0 16.1 0.00 0.00 0.00 81 1010.0
20260509013434 24 360 8.0 17.7 0.00 0.00 0.00 81 1010.0
20260509013333 24 360 8.0 17.7 0.00 0.00 0.00 81 1009.9
20260509013234 24 360 6.4 17.7 0.00 0.00 0.00 81 1010.0
20260509013135 24 360 6.4 17.7 0.00 0.00 0.00 81 1010.0
20260509013055 24 360 8.0 17.7 0.00 0.00 0.00 81 1010.1
20260509012935 24 360 8.0 17.7 0.00 0.00 0.00 81 1010.0
20260509012836 24 360 8.0 17.7 0.00 0.00 0.00 80 1010.0
20260509012718 24 360 8.0 14.5 0.00 0.00 0.00 80 1010.1
20260509012619 24 360 8.0 14.5 0.00 0.00 0.00 80 1010.0
20260509012519 24 360 8.0 14.5 0.00 0.00 0.00 80 1010.1
20260509012419 24 360 8.0 14.5 0.00 0.00 0.00 80 1010.0
20260509012320 24 360 8.0 14.5 0.00 0.00 0.00 80 1010.1
20260509012218 24 360 8.0 14.5 0.00 0.00 0.00 80 1010.1
20260509012119 24 360 6.4 14.5 0.00 0.00 0.00 80 1010.0
20260509012023 24 360 6.4 14.5 0.00 0.00 0.00 80 1010.1
20260509011924 24 360 6.4 14.5 0.00 0.00 0.00 80 1010.0
20260509011824 24 360 4.8 14.5 0.00 0.00 0.00 80 1010.1
20260509011724 24 360 6.4 14.5 0.00 0.00 0.00 80 1010.1
20260509011625 24 360 6.4 14.5 0.00 0.00 0.00 80 1010.1
20260509011525 24 360 6.4 16.1 0.00 0.00 0.00 80 1010.0
20260509011430 24 360 6.4 16.1 0.00 0.00 0.00 80 1010.0
20260509011330 24 360 6.4 16.1 0.00 0.00 0.00 80 1010.0
20260509011231 24 360 6.4 16.1 0.00 0.00 0.00 80 1010.0
20260509011132 24 360 8.0 16.1 0.00 0.00 0.00 80 1010.0
20260509011032 24 360 8.0 16.1 0.00 0.00 0.00 80 1010.1
20260509010933 24 360 8.0 16.1 0.00 0.00 0.00 80 1010.0
20260509010818 24 360 8.0 16.1 0.00 0.00 0.00 80 1010.0
20260509010719 24 360 8.0 16.1 0.00 0.00 0.00 80 1009.9
20260509010619 24 360 6.4 16.1 0.00 0.00 0.00 80 1010.0
20260509010520 24 360 6.4 16.1 0.00 0.00 0.00 80 1010.0
20260509010440 25 360 6.4 14.5 0.00 0.00 0.00 80 1010.1
20260509010320 25 360 6.4 14.5 0.00 0.00 0.00 80 1010.0
20260509010220 25 360 4.8 12.9 0.00 0.00 0.00 80 1010.0
20260509010125 25 360 4.8 19.3 0.00 0.00 0.00 80 1010.0
20260509010025 25 360 6.4 19.3 0.00 0.00 0.00 80 1010.0
20260509005924 25 360 6.4 19.3 0.00 0.00 0.00 80 1009.9
20260509005825 25 360 8.0 19.3 0.00 0.00 0.00 80 1010.0
20260509005746 24 360 9.7 19.3 0.00 0.00 0.00 80 1009.9
20260509005625 25 360 9.7 19.3 0.00 0.00 0.00 80 1009.8
20260509005525 25 360 9.7 19.3 0.00 0.00 0.00 80 1009.9
20260509005425 25 360 9.7 19.3 0.00 0.00 0.00 80 1009.9
20260509005330 25 360 9.7 19.3 0.00 0.00 0.00 80 1009.9
20260509005231 25 360 9.7 19.3 0.00 0.00 0.00 79 1009.9
20260509005129 25 360 9.7 19.3 0.00 0.00 0.00 79 1009.9
20260509005029 25 360 8.0 19.3 0.00 0.00 0.00 79 1009.9
20260509004930 25 360 8.0 19.3 0.00 0.00 0.00 79 1009.8
20260509004831 25 360 8.0 19.3 0.00 0.00 0.00 79 1009.8
20260509004752 25 360 9.7 19.3 0.00 0.00 0.00 79 1009.8
20260509004616 25 360 9.7 19.3 0.00 0.00 0.00 79 1009.9
20260509004517 25 360 9.7 19.3 0.00 0.00 0.00 79 1009.8
20260509004417 25 360 11.3 19.3 0.00 0.00 0.00 79 1009.8
20260509004318 25 360 11.3 19.3 0.00 0.00 0.00 79 1009.8
20260509004219 25 360 12.9 19.3 0.00 0.00 0.00 79 1009.8
20260509004120 25 360 11.3 19.3 0.00 0.00 0.00 79 1009.8
20260509004040 25 360 11.3 19.3 0.00 0.00 0.00 79 1009.8
20260509003924 25 360 11.3 19.3 0.00 0.00 0.00 79 1009.8
20260509003823 25 360 9.7 17.7 0.00 0.00 0.00 79 1009.9
20260509003724 25 360 9.7 17.7 0.00 0.00 0.00 79 1009.8
20260509003624 25 360 11.3 17.7 0.00 0.00 0.00 79 1009.8
20260509003545 25 360 11.3 17.7 0.00 0.00 0.00 79 1009.8
20260509003424 25 360 11.3 19.3 0.00 0.00 0.00 79 1009.7
20260509003345 25 360 11.3 19.3 0.00 0.00 0.00 79 1009.8
20260509003243 25 360 11.3 22.5 0.00 0.00 0.00 79 1009.8
20260509003127 25 360 12.9 22.5 0.00 0.00 0.00 79 1009.8
20260509003027 25 360 12.9 22.5 0.00 0.00 0.00 79 1009.8
20260509002928 25 360 12.9 20.9 0.00 0.00 0.00 79 1009.8
20260509002828 25 360 12.9 20.9 0.00 0.00 0.00 79 1009.8
20260509002730 25 360 14.5 20.9 0.00 0.00 0.00 79 1009.8
20260509002629 25 360 12.9 20.9 0.00 0.00 0.00 79 1009.8
20260509002535 25 360 12.9 20.9 0.00 0.00 0.00 79 1009.9
20260509002455 25 360 12.9 20.9 0.00 0.00 0.00 79 1009.9
20260509002334 25 360 11.3 17.7 0.00 0.00 0.00 78 1009.9
20260509002235 25 360 11.3 17.7 0.00 0.00 0.00 78 1009.9
20260509002156 25 360 11.3 17.7 0.00 0.00 0.00 78 1009.8
20260509002056 25 360 11.3 17.7 0.00 0.00 0.00 78 1009.9
20260509001934 25 360 9.7 14.5 0.00 0.00 0.00 78 1009.9
20260509001835 25 360 9.7 16.1 0.00 0.00 0.00 78 1009.9
20260509001720 25 360 9.7 16.1 0.00 0.00 0.00 78 1010.0
20260509001620 25 360 8.0 16.1 0.00 0.00 0.00 78 1009.9
20260509001522 25 360 8.0 16.1 0.00 0.00 0.00 78 1009.9
20260509001421 25 360 8.0 16.1 0.00 0.00 0.00 78 1009.9
20260509001322 25 360 8.0 16.1 0.00 0.00 0.00 79 1010.0
20260509001223 25 360 9.7 24.1 0.00 0.00 0.00 78 1009.9
20260509001127 25 360 9.7 24.1 0.00 0.00 0.00 78 1010.0
20260509001028 25 360 9.7 24.1 0.00 0.00 0.00 78 1010.0
20260509000948 25 360 11.3 24.1 0.00 0.00 0.00 78 1009.9
20260509000828 25 360 11.3 24.1 0.00 0.00 0.00 78 1009.9
20260509000729 25 360 12.9 24.1 0.00 0.00 0.00 78 1010.0
20260509000630 25 360 12.9 24.1 0.00 0.00 0.00 78 1010.0
20260509000549 25 360 12.9 24.1 0.00 0.00 0.00 78 1010.0
20260509000429 25 360 12.9 24.1 0.00 0.00 0.00 78 1009.9
20260509000333 25 360 11.3 24.1 0.00 0.00 0.00 78 1010.0
20260509000234 25 360 11.3 24.1 0.00 0.00 0.00 77 1010.0
20260509000135 25 360 11.3 22.5 0.00 0.00 0.00 77 1010.0
20260509000016 25 360 11.3 22.5 0.00 0.00 0.00 77 1010.0
20260508235917 25 360 14.5 22.5 0.00 0.00 0.00 77 1009.9
20260508235819 25 360 14.5 22.5 0.00 0.00 0.00 77 1009.9
20260508235742 25 360 14.5 22.5 0.00 0.00 0.00 77 1010.0
20260508235621 25 360 14.5 22.5 0.00 0.00 0.00 77 1009.9
20260508235521 25 360 12.9 20.9 0.00 0.00 0.00 77 1009.9
20260508235442 25 360 11.3 20.9 0.00 0.00 0.00 77 1009.8
20260508235341 25 360 9.7 19.3 0.00 0.00 0.00 77 1009.9
20260508235221 25 360 9.7 19.3 0.00 0.00 0.00 77 1009.9
20260508235122 25 360 9.7 19.3 0.00 0.00 0.00 77 1009.9
20260508235021 25 360 9.7 19.3 0.00 0.00 0.00 77 1009.9
20260508234926 25 360 11.3 19.3 0.00 0.00 0.00 77 1009.9
20260508234847 25 360 11.3 19.3 0.00 0.00 0.00 77 1009.9
20260508234727 25 360 11.3 19.3 0.00 0.00 0.00 77 1009.9
20260508234627 25 360 11.3 19.3 0.00 0.00 0.00 76 1009.9
20260508234527 25 360 11.3 19.3 0.00 0.00 0.00 76 1009.9
20260508234427 25 360 11.3 19.3 0.00 0.00 0.00 76 1009.9
20260508234327 25 360 11.3 19.3 0.00 0.00 0.00 76 1009.8
20260508234232 25 360 9.7 19.3 0.00 0.00 0.00 76 1009.8
20260508234133 25 360 11.3 19.3 0.00 0.00 0.00 76 1009.9
20260508234033 25 360 9.7 19.3 0.00 0.00 0.00 76 1009.9
20260508233934 25 360 9.7 19.3 0.00 0.00 0.00 76 1009.8
20260508233835 25 360 9.7 20.9 0.00 0.00 0.00 76 1009.9
20260508233734 25 360 11.3 24.1 0.00 0.00 0.00 76 1009.8
20260508233619 25 360 12.9 24.1 0.00 0.00 0.00 76 1009.9
20260508233520 25 360 11.3 24.1 0.00 0.00 0.00 76 1009.9
20260508233441 25 360 12.9 24.1 0.00 0.00 0.00 76 1009.9
20260508233320 25 360 12.9 24.1 0.00 0.00 0.00 76 1009.9
20260508233220 25 360 12.9 24.1 0.00 0.00 0.00 76 1009.9
20260508233121 25 360 12.9 24.1 0.00 0.00 0.00 76 1009.9
20260508233022 25 360 12.9 24.1 0.00 0.00 0.00 76 1009.9
20260508232927 25 360 12.9 24.1 0.00 0.00 0.00 76 1009.9
20260508232828 25 360 14.5 24.1 0.00 0.00 0.00 76 1009.9
20260508232747 25 360 14.5 24.1 0.00 0.00 0.00 76 1009.9
20260508232626 25 360 12.9 24.1 0.00 0.00 0.00 76 1009.8
20260508232526 25 360 12.9 24.1 0.00 0.00 0.00 76 1009.8
20260508232426 25 360 12.9 20.9 0.00 0.00 0.00 76 1009.8
20260508232326 25 360 12.9 24.1 0.00 0.00 0.00 76 1009.7
20260508232231 25 360 14.5 24.1 0.00 0.00 0.00 76 1009.7
20260508232152 25 360 12.9 24.1 0.00 0.00 0.00 76 1009.8
20260508232031 25 360 12.9 24.1 0.00 0.00 0.00 76 1009.8
20260508231931 25 360 12.9 24.1 0.00 0.00 0.00 76 1009.8
20260508231831 25 360 12.9 24.1 0.00 0.00 0.00 76 1009.8
20260508231730 25 360 14.5 24.1 0.00 0.00 0.00 76 1009.7
20260508231630 25 360 14.5 24.1 0.00 0.00 0.00 76 1009.8
20260508231531 25 360 14.5 24.1 0.00 0.00 0.00 76 1009.8
20260508231435 25 360 12.9 24.1 0.00 0.00 0.00 76 1009.8
20260508231335 25 360 11.3 20.9 0.00 0.00 0.00 76 1009.8
20260508231256 25 360 11.3 20.9 0.00 0.00 0.00 76 1009.8
20260508231134 25 360 11.3 20.9 0.00 0.00 0.00 76 1009.8
20260508231035 25 360 12.9 20.9 0.00 0.00 0.00 76 1009.8
20260508230916 25 360 12.9 24.1 0.00 0.00 0.00 75 1009.8
20260508230818 25 360 12.9 24.1 0.00 0.00 0.00 75 1009.8
20260508230722 25 360 12.9 24.1 0.00 0.00 0.00 75 1009.9
20260508230621 25 360 12.9 24.1 0.00 0.00 0.00 75 1010.0
20260508230541 25 360 14.5 24.1 0.00 0.00 0.00 75 1009.9
20260508230422 25 360 14.5 24.1 0.00 0.00 0.00 75 1010.0
20260508230321 25 360 14.5 24.1 0.00 0.00 0.00 75 1009.8
20260508230222 25 360 14.5 24.1 0.00 0.00 0.00 75 1009.9
20260508230123 25 360 14.5 24.1 0.00 0.00 0.00 75 1009.9
20260508230023 25 360 14.5 22.5 0.00 0.00 0.00 75 1009.9
20260508225927 25 360 14.5 22.5 0.00 0.00 0.00 75 1009.9
20260508225829 25 360 14.5 22.5 0.00 0.00 0.00 75 1010.0
20260508225727 25 360 14.5 22.5 0.00 0.00 0.00 75 1009.9
20260508225628 25 360 14.5 22.5 0.00 0.00 0.00 75 1009.9
20260508225528 25 360 14.5 22.5 0.00 0.00 0.00 75 1009.9
20260508225428 25 360 12.9 22.5 0.00 0.00 0.00 75 1009.9
20260508225332 25 360 12.9 20.9 0.00 0.00 0.00 75 1010.0
20260508225232 25 360 12.9 22.5 0.00 0.00 0.00 75 1009.9
20260508225134 25 360 12.9 22.5 0.00 0.00 0.00 75 1009.9
20260508225035 25 360 12.9 22.5 0.00 0.00 0.00 75 1010.0
20260508224956 25 360 14.5 22.5 0.00 0.00 0.00 75 1009.9
20260508224836 25 360 12.9 22.5 0.00 0.00 0.00 75 1009.9
20260508224716 25 360 12.9 22.5 0.00 0.00 0.00 75 1009.9
20260508224621 25 360 12.9 22.5 0.00 0.00 0.00 75 1010.0
20260508224541 26 360 14.5 24.1 0.00 0.00 0.00 75 1009.9
20260508224421 26 360 14.5 24.1 0.00 0.00 0.00 75 1009.9
20260508224321 26 360 16.1 24.1 0.00 0.00 0.00 74 1009.8
20260508224222 26 360 14.5 24.1 0.00 0.00 0.00 74 1009.8
20260508224143 26 360 14.5 24.1 0.00 0.00 0.00 74 1009.9
20260508224022 26 360 16.1 24.1 0.00 0.00 0.00 74 1009.8
20260508223927 26 360 16.1 24.1 0.00 0.00 0.00 74 1009.8
20260508223847 26 360 16.1 24.1 0.00 0.00 0.00 74 1009.8
20260508223727 26 360 14.5 24.1 0.00 0.00 0.00 74 1009.8
20260508223627 26 360 14.5 19.3 0.00 0.00 0.00 74 1009.8
20260508223528 26 360 12.9 19.3 0.00 0.00 0.00 74 1009.8
20260508223448 26 360 11.3 20.9 0.00 0.00 0.00 74 1009.8
20260508223328 26 360 11.3 22.5 0.00 0.00 0.00 74 1009.9
20260508223228 26 360 9.7 22.5 0.00 0.00 0.00 74 1009.9
20260508223132 26 360 9.7 22.5 0.00 0.00 0.00 74 1009.9
20260508223032 26 360 11.3 22.5 0.00 0.00 0.00 74 1009.9
20260508222954 26 360 12.9 22.5 0.00 0.00 0.00 74 1009.9
20260508222852 26 360 14.5 22.5 0.00 0.00 0.00 74 1010.0
20260508222753 26 360 12.9 24.1 0.00 0.00 0.00 74 1009.9
20260508222632 26 360 12.9 24.1 0.00 0.00 0.00 74 1009.9
20260508222533 26 360 11.3 24.1 0.00 0.00 0.00 74 1009.9
20260508222416 26 360 8.0 24.1 0.00 0.00 0.00 74 1009.8
20260508222316 26 360 9.7 24.1 0.00 0.00 0.00 74 1009.8
20260508222216 26 360 11.3 24.1 0.00 0.00 0.00 74 1009.9
20260508222137 26 360 12.9 24.1 0.00 0.00 0.00 74 1009.9
20260508222016 26 360 12.9 24.1 0.00 0.00 0.00 74 1009.9
20260508221937 26 360 12.9 24.1 0.00 0.00 0.00 74 1009.9
20260508221857 26 360 12.9 24.1 0.00 0.00 0.00 74 1009.9
20260508221716 26 360 11.3 19.3 0.00 0.00 0.00 73 1009.9
20260508221620 26 360 11.3 19.3 0.00 0.00 0.00 73 1010.0
20260508221521 26 360 9.7 19.3 0.00 0.00 0.00 74 1010.0
20260508221421 26 360 8.0 19.3 0.00 0.00 0.00 74 1010.0
20260508221320 26 360 8.0 19.3 0.00 0.00 0.00 74 1010.0
20260508221220 26 360 6.4 20.9 0.00 0.00 0.00 74 1010.0
20260508221121 26 360 6.4 20.9 0.00 0.00 0.00 74 1010.0
20260508221022 26 360 6.4 20.9 0.00 0.00 0.00 74 1010.1
20260508220943 26 360 8.0 20.9 0.00 0.00 0.00 74 1010.0
20260508220826 26 360 11.3 20.9 0.00 0.00 0.00 74 1010.0
20260508220748 26 360 12.9 20.9 0.00 0.00 0.00 74 1010.0
20260508220627 26 360 14.5 24.1 0.00 0.00 0.00 73 1010.0
20260508220547 26 360 12.9 24.1 0.00 0.00 0.00 74 1010.1
20260508220427 26 360 12.9 24.1 0.00 0.00 0.00 74 1010.1
20260508220328 26 360 11.3 24.1 0.00 0.00 0.00 73 1010.1
20260508220228 26 360 9.7 24.1 0.00 0.00 0.00 73 1010.0
20260508220132 26 360 11.3 24.1 0.00 0.00 0.00 73 1010.0
20260508220053 26 360 12.9 24.1 0.00 0.00 0.00 73 1010.0
20260508215933 26 360 11.3 24.1 0.00 0.00 0.00 73 1010.0
20260508215833 26 360 11.3 24.1 0.00 0.00 0.00 73 1010.1
20260508215735 26 360 12.9 24.1 0.00 0.00 0.00 73 1010.1
20260508215635 26 360 11.3 24.1 0.00 0.00 0.00 73 1010.1
20260508215516 26 360 9.7 19.3 0.00 0.00 0.00 73 1010.1
20260508215420 26 360 11.3 19.3 0.00 0.00 0.00 73 1010.0
20260508215321 26 360 11.3 19.3 0.00 0.00 0.00 73 1010.1
20260508215219 26 360 12.9 19.3 0.00 0.00 0.00 73 1010.1
20260508215121 26 360 12.9 19.3 0.00 0.00 0.00 73 1010.0
20260508215021 26 360 12.9 19.3 0.00 0.00 0.00 72 1010.1
20260508214921 26 360 11.3 19.3 0.00 0.00 0.00 72 1010.1
20260508214822 26 360 11.3 19.3 0.00 0.00 0.00 73 1010.1
20260508214726 26 360 9.7 19.3 0.00 0.00 0.00 73 1010.1
20260508214627 26 360 9.7 19.3 0.00 0.00 0.00 73 1010.1
20260508214548 26 360 9.7 19.3 0.00 0.00 0.00 73 1010.1
20260508214447 26 360 9.7 19.3 0.00 0.00 0.00 73 1010.1
20260508214326 26 360 8.0 20.9 0.00 0.00 0.00 73 1010.1
20260508214226 26 360 8.0 20.9 0.00 0.00 0.00 73 1010.1
20260508214127 26 360 8.0 20.9 0.00 0.00 0.00 73 1010.1
20260508214028 26 360 8.0 22.5 0.00 0.00 0.00 73 1010.2
20260508213931 26 360 8.0 22.5 0.00 0.00 0.00 73 1010.1
20260508213832 26 360 9.7 22.5 0.00 0.00 0.00 73 1010.1
20260508213749 26 360 11.3 22.5 0.00 0.00 0.00 73 1010.1
20260508213649 26 360 11.3 22.5 0.00 0.00 0.00 73 1010.1
20260508213549 26 360 11.3 22.5 0.00 0.00 0.00 73 1010.1
20260508213428 26 360 12.9 22.5 0.00 0.00 0.00 73 1010.2
20260508213349 26 360 11.3 20.9 0.00 0.00 0.00 73 1010.1
20260508213248 26 360 11.3 20.9 0.00 0.00 0.00 73 1010.1
20260508213128 26 360 9.7 19.3 0.00 0.00 0.00 73 1010.1
20260508213031 26 360 9.7 19.3 0.00 0.00 0.00 73 1010.1
20260508212932 26 360 8.0 19.3 0.00 0.00 0.00 73 1010.2
20260508212832 26 360 6.4 19.3 0.00 0.00 0.00 73 1010.2
20260508212735 26 360 8.0 19.3 0.00 0.00 0.00 73 1010.2
20260508212654 26 360 9.7 19.3 0.00 0.00 0.00 73 1010.2
20260508212534 26 360 9.7 19.3 0.00 0.00 0.00 73 1010.2
20260508212419 26 360 11.3 19.3 0.00 0.00 0.00 73 1010.2
20260508212319 25 360 11.3 19.3 0.00 0.00 0.00 73 1010.3
20260508212219 25 360 11.3 19.3 0.00 0.00 0.00 74 1010.3
20260508212119 25 360 11.3 19.3 0.00 0.00 0.00 74 1010.3
20260508212019 25 360 9.7 19.3 0.00 0.00 0.00 74 1010.4
20260508211919 26 360 11.3 19.3 0.00 0.00 0.00 74 1010.4
20260508211820 26 360 11.3 19.3 0.00 0.00 0.00 74 1010.4
20260508211725 25 360 11.3 19.3 0.00 0.00 0.00 74 1010.4
20260508211623 25 360 11.3 19.3 0.00 0.00 0.00 74 1010.4
20260508211543 25 360 11.3 19.3 0.00 0.00 0.00 74 1010.5
20260508211423 25 360 11.3 19.3 0.00 0.00 0.00 74 1010.5
20260508211343 25 360 11.3 19.3 0.00 0.00 0.00 74 1010.5
20260508211222 25 360 11.3 19.3 0.00 0.00 0.00 74 1010.5
20260508211142 25 360 11.3 19.3 0.00 0.00 0.00 74 1010.5
20260508211022 25 360 11.3 19.3 0.00 0.00 0.00 74 1010.6
20260508210942 25 360 11.3 19.3 0.00 0.00 0.00 74 1010.6
20260508210827 25 360 11.3 19.3 0.00 0.00 0.00 74 1010.6
20260508210727 25 360 11.3 19.3 0.00 0.00 0.00 74 1010.6
20260508210627 25 360 11.3 19.3 0.00 0.00 0.00 74 1010.6
20260508210528 25 360 11.3 19.3 0.00 0.00 0.00 74 1010.6
20260508210428 25 360 9.7 19.3 0.00 0.00 0.00 74 1010.7
20260508210329 25 360 9.7 17.7 0.00 0.00 0.00 74 1010.8
20260508210229 25 360 9.7 17.7 0.00 0.00 0.00 74 1010.7
20260508210134 25 360 8.0 17.7 0.00 0.00 0.00 74 1010.8
20260508210034 25 360 9.7 17.7 0.00 0.00 0.00 74 1010.8
20260508205935 25 360 9.7 17.7 0.00 0.00 0.00 74 1010.8
20260508205834 25 360 8.0 17.7 0.00 0.00 0.00 74 1010.8
20260508205736 25 360 9.7 17.7 0.00 0.00 0.00 74 1010.8
20260508205616 25 360 9.7 17.7 0.00 0.00 0.00 73 1010.8
20260508205520 25 360 11.3 17.7 0.00 0.00 0.00 73 1010.9
20260508205420 25 360 11.3 20.9 0.00 0.00 0.00 73 1010.8
20260508205321 25 360 11.3 20.9 0.00 0.00 0.00 73 1010.8
20260508205242 25 360 11.3 20.9 0.00 0.00 0.00 73 1010.8
20260508205122 25 360 11.3 20.9 0.00 0.00 0.00 74 1010.8
20260508205022 25 360 12.9 20.9 0.00 0.00 0.00 73 1010.8
20260508204922 25 360 12.9 20.9 0.00 0.00 0.00 73 1010.8
20260508204828 26 360 12.9 20.9 0.00 0.00 0.00 73 1010.8
20260508204728 26 360 11.3 20.9 0.00 0.00 0.00 72 1010.8
20260508204627 26 360 11.3 20.9 0.00 0.00 0.00 72 1010.8
20260508204528 26 360 11.3 19.3 0.00 0.00 0.00 72 1010.9
20260508204428 26 360 11.3 19.3 0.00 0.00 0.00 72 1010.8
20260508204328 26 360 11.3 19.3 0.00 0.00 0.00 72 1010.9
20260508204228 26 360 11.3 17.7 0.00 0.00 0.00 72 1010.9
20260508204133 26 360 11.3 17.7 0.00 0.00 0.00 71 1010.8
20260508204053 26 360 11.3 17.7 0.00 0.00 0.00 72 1010.8
20260508203933 26 360 9.7 17.7 0.00 0.00 0.00 72 1010.9
20260508203854 26 360 9.7 17.7 0.00 0.00 0.00 72 1011.0
20260508203733 26 360 9.7 20.9 0.00 0.00 0.00 72 1010.9
20260508203654 26 360 9.7 20.9 0.00 0.00 0.00 72 1011.0
20260508203533 26 360 8.0 20.9 0.00 0.00 0.00 72 1011.0
20260508203433 26 360 9.7 20.9 0.00 0.00 0.00 72 1010.8
20260508203317 26 360 9.7 20.9 0.00 0.00 0.00 72 1010.9
20260508203218 26 360 11.3 20.9 0.00 0.00 0.00 71 1011.0
20260508203119 26 360 11.3 20.9 0.00 0.00 0.00 71 1011.0
20260508203019 26 360 11.3 20.9 0.00 0.00 0.00 71 1011.0
20260508202920 26 360 9.7 20.9 0.00 0.00 0.00 70 1011.0
20260508202822 26 360 9.7 17.7 0.00 0.00 0.00 70 1011.0
20260508202725 26 360 9.7 16.1 0.00 0.00 0.00 71 1011.1
20260508202626 26 360 8.0 14.5 0.00 0.00 0.00 71 1011.1
20260508202526 26 360 8.0 17.7 0.00 0.00 0.00 70 1011.0
20260508202426 26 360 8.0 17.7 0.00 0.00 0.00 70 1011.1
20260508202325 26 360 6.4 17.7 0.00 0.00 0.00 70 1011.0
20260508202225 26 360 6.4 17.7 0.00 0.00 0.00 70 1011.0
20260508202126 27 360 4.8 17.7 0.00 0.00 0.00 70 1011.1
20260508202031 27 360 6.4 17.7 0.00 0.00 0.00 70 1011.1
20260508201930 27 360 8.0 17.7 0.00 0.00 0.00 70 1011.0
20260508201851 27 360 8.0 17.7 0.00 0.00 0.00 69 1011.1
20260508201751 27 360 8.0 17.7 0.00 0.00 0.00 68 1011.2
20260508201650 27 360 8.0 17.7 0.00 0.00 0.00 69 1011.1
20260508201529 27 360 6.4 16.1 0.00 0.00 0.00 68 1011.2
20260508201429 27 360 6.4 16.1 0.00 0.00 0.00 69 1011.2
20260508201351 27 360 8.0 16.1 0.00 0.00 0.00 68 1011.2
20260508201231 27 360 6.4 16.1 0.00 0.00 0.00 68 1011.2
20260508201136 27 360 6.4 16.1 0.00 0.00 0.00 68 1011.2
20260508201016 27 360 4.8 9.7 0.00 0.00 0.00 68 1011.2
20260508200917 27 360 4.8 9.7 0.00 0.00 0.00 69 1011.2
20260508200837 27 360 4.8 9.7 0.00 0.00 0.00 69 1011.2
20260508200717 27 360 4.8 17.7 0.00 0.00 0.00 69 1011.2
20260508200617 27 360 4.8 17.7 0.00 0.00 0.00 69 1011.2
20260508200522 27 360 6.4 17.7 0.00 0.00 0.00 69 1011.2
20260508200423 27 360 6.4 17.7 0.00 0.00 0.00 69 1011.2
20260508200324 27 360 6.4 17.7 0.00 0.00 0.00 70 1011.3
20260508200224 27 360 6.4 17.7 0.00 0.00 0.00 70 1011.2
20260508200145 27 360 4.8 17.7 0.00 0.00 0.00 70 1011.2
20260508200022 26 360 6.4 17.7 0.00 0.00 0.00 70 1011.3
20260508195943 26 360 6.4 20.9 0.00 0.00 0.00 70 1011.3
20260508195823 26 360 8.0 20.9 0.00 0.00 0.00 71 1011.3
20260508195729 26 360 9.7 20.9 0.00 0.00 0.00 71 1011.3
20260508195628 26 360 11.3 20.9 0.00 0.00 0.00 71 1011.3
20260508195528 26 360 11.3 20.9 0.00 0.00 0.00 70 1011.2
20260508195430 26 360 11.3 20.9 0.00 0.00 0.00 70 1011.3
20260508195331 26 360 11.3 20.9 0.00 0.00 0.00 71 1011.3
20260508195230 26 360 12.9 20.9 0.00 0.00 0.00 71 1011.2
20260508195130 26 360 11.3 20.9 0.00 0.00 0.00 71 1011.3
20260508195055 26 360 11.3 20.9 0.00 0.00 0.00 71 1011.2
20260508194934 26 360 9.7 19.3 0.00 0.00 0.00 72 1011.2
20260508194834 25 360 11.3 19.3 0.00 0.00 0.00 72 1011.2
20260508194734 25 360 11.3 19.3 0.00 0.00 0.00 72 1011.2
20260508194635 25 360 11.3 19.3 0.00 0.00 0.00 72 1011.3
20260508194555 25 360 12.9 19.3 0.00 0.00 0.00 71 1011.3
20260508194434 25 360 12.9 19.3 0.00 0.00 0.00 71 1011.3
20260508194319 26 360 11.3 19.3 0.00 0.00 0.00 71 1011.4
20260508194218 26 360 9.7 17.7 0.00 0.00 0.00 71 1011.5
20260508194119 26 360 9.7 17.7 0.00 0.00 0.00 70 1011.5
20260508194020 26 360 8.0 17.7 0.00 0.00 0.00 71 1011.5
20260508193920 26 360 8.0 17.7 0.00 0.00 0.00 71 1011.5
20260508193821 26 360 9.7 24.1 0.00 0.00 0.00 71 1011.6
20260508193724 26 360 9.7 24.1 0.00 0.00 0.00 71 1011.6
20260508193626 26 360 9.7 24.1 0.00 0.00 0.00 71 1011.6
20260508193545 26 360 9.7 24.1 0.00 0.00 0.00 70 1011.6
20260508193425 26 360 9.7 24.1 0.00 0.00 0.00 70 1011.7
20260508193326 26 360 9.7 24.1 0.00 0.00 0.00 70 1011.7
20260508193226 26 360 11.3 24.1 0.00 0.00 0.00 70 1011.6
20260508193126 26 360 9.7 24.1 0.00 0.00 0.00 71 1011.6
20260508193030 26 360 11.3 24.1 0.00 0.00 0.00 71 1011.6
20260508192929 26 360 8.0 24.1 0.00 0.00 0.00 71 1011.6
20260508192850 26 360 8.0 17.7 0.00 0.00 0.00 72 1011.6
20260508192727 26 360 9.7 17.7 0.00 0.00 0.00 72 1011.6
20260508192627 26 360 9.7 17.7 0.00 0.00 0.00 73 1011.6
20260508192547 25 360 9.7 17.7 0.00 0.00 0.00 73 1011.6
20260508192426 25 360 12.9 17.7 0.00 0.00 0.00 73 1011.7
20260508192346 25 360 11.3 17.7 0.00 0.00 0.00 73 1011.6
20260508192226 25 360 12.9 17.7 0.00 0.00 0.00 72 1011.7
20260508192130 25 360 11.3 17.7 0.00 0.00 0.00 73 1011.7
20260508192030 25 360 11.3 17.7 0.00 0.00 0.00 73 1011.6
20260508191951 25 360 11.3 17.7 0.00 0.00 0.00 73 1011.7
20260508191850 25 360 9.7 16.1 0.00 0.00 0.00 72 1011.7
20260508191729 25 360 9.7 16.1 0.00 0.00 0.00 72 1011.7
20260508191630 25 360 8.0 16.1 0.00 0.00 0.00 72 1011.7
20260508191529 25 360 6.4 12.9 0.00 0.00 0.00 72 1011.8
20260508191430 25 360 6.4 14.5 0.00 0.00 0.00 72 1011.7
20260508191316 25 360 6.4 14.5 0.00 0.00 0.00 72 1011.8
20260508191216 25 360 6.4 14.5 0.00 0.00 0.00 72 1011.8
20260508191117 25 360 6.4 14.5 0.00 0.00 0.00 72 1011.8
20260508191018 25 360 8.0 17.7 0.00 0.00 0.00 72 1011.8
20260508190917 25 360 8.0 17.7 0.00 0.00 0.00 71 1011.8
20260508190818 25 360 8.0 17.7 0.00 0.00 0.00 71 1011.8
20260508190722 25 360 8.0 17.7 0.00 0.00 0.00 71 1011.8
20260508190622 25 360 6.4 17.7 0.00 0.00 0.00 71 1011.8
20260508190524 25 360 8.0 17.7 0.00 0.00 0.00 71 1011.8
20260508190422 25 360 6.4 17.7 0.00 0.00 0.00 70 1011.9
20260508190322 25 360 9.7 17.7 0.00 0.00 0.00 71 1011.9
20260508190223 25 360 9.7 17.7 0.00 0.00 0.00 70 1011.8
20260508190124 25 360 9.7 17.7 0.00 0.00 0.00 70 1011.9
20260508190029 25 360 9.7 17.7 0.00 0.00 0.00 70 1011.9
20260508185930 25 360 8.0 14.5 0.00 0.00 0.00 70 1011.8
20260508185830 25 360 6.4 12.9 0.00 0.00 0.00 70 1011.8
20260508185731 25 360 6.4 12.9 0.00 0.00 0.00 70 1011.9
20260508185651 25 360 6.4 14.5 0.00 0.00 0.00 70 1011.9
20260508185529 25 360 6.4 14.5 0.00 0.00 0.00 70 1012.0
20260508185447 25 360 6.4 14.5 0.00 0.00 0.00 70 1012.0
20260508185329 25 360 6.4 17.7 0.00 0.00 0.00 71 1012.0
20260508185230 25 360 8.0 17.7 0.00 0.00 0.00 71 1012.0
20260508185131 25 360 8.0 17.7 0.00 0.00 0.00 71 1012.1
20260508185030 25 360 9.7 17.7 0.00 0.00 0.00 71 1012.0
20260508184932 25 360 9.7 17.7 0.00 0.00 0.00 70 1011.9
20260508184852 25 360 11.3 17.7 0.00 0.00 0.00 71 1012.0
20260508184732 25 360 11.3 17.7 0.00 0.00 0.00 70 1012.0
20260508184616 25 360 9.7 17.7 0.00 0.00 0.00 70 1011.9
20260508184516 25 360 8.0 17.7 0.00 0.00 0.00 70 1011.9
20260508184416 25 360 6.4 17.7 0.00 0.00 0.00 70 1012.0
20260508184317 25 360 6.4 17.7 0.00 0.00 0.00 70 1012.0
20260508184217 25 360 6.4 17.7 0.00 0.00 0.00 70 1012.0
20260508184138 25 360 6.4 17.7 0.00 0.00 0.00 70 1012.0
20260508184016 25 360 6.4 17.7 0.00 0.00 0.00 70 1012.0
20260508183922 25 360 8.0 17.7 0.00 0.00 0.00 70 1012.1
20260508183823 25 360 8.0 17.7 0.00 0.00 0.00 70 1012.0
20260508183744 25 360 9.7 17.7 0.00 0.00 0.00 70 1012.1
20260508183643 25 360 9.7 17.7 0.00 0.00 0.00 70 1012.0
20260508183522 25 360 9.7 17.7 0.00 0.00 0.00 69 1012.0
20260508183423 25 360 8.0 17.7 0.00 0.00 0.00 69 1012.1
20260508183323 25 360 8.0 19.3 0.00 0.00 0.00 69 1012.1
20260508183228 25 360 9.7 22.5 0.00 0.00 0.00 70 1012.1
20260508183126 25 360 9.7 22.5 0.00 0.00 0.00 70 1012.0
20260508183028 25 360 9.7 22.5 0.00 0.00 0.00 70 1012.1
20260508182928 25 360 9.7 22.5 0.00 0.00 0.00 70 1012.1
20260508182828 25 360 11.3 22.5 0.00 0.00 0.00 70 1012.2
20260508182729 25 360 11.3 22.5 0.00 0.00 0.00 70 1012.3
20260508182628 25 360 12.9 22.5 0.00 0.00 0.00 70 1012.3
20260508182531 25 360 14.5 22.5 0.00 0.00 0.00 70 1012.3
20260508182432 25 360 14.5 22.5 0.00 0.00 0.00 70 1012.3
20260508182333 25 360 14.5 20.9 0.00 0.00 0.00 70 1012.3
20260508182231 25 360 12.9 20.9 0.00 0.00 0.00 70 1012.5
20260508182132 25 360 9.7 17.7 0.00 0.00 0.00 69 1012.3
20260508182033 25 360 9.7 17.7 0.00 0.00 0.00 69 1012.4
20260508181933 25 360 9.7 17.7 0.00 0.00 0.00 71 1012.5
20260508181817 25 360 9.7 17.7 0.00 0.00 0.00 70 1012.5
20260508181718 25 360 11.3 17.7 0.00 0.00 0.00 70 1012.5
20260508181617 25 360 11.3 17.7 0.00 0.00 0.00 71 1012.5
20260508181518 25 360 11.3 17.7 0.00 0.00 0.00 71 1012.5
20260508181418 25 360 11.3 17.7 0.00 0.00 0.00 70 1012.4
20260508181319 25 360 11.3 17.7 0.00 0.00 0.00 70 1012.4
20260508181239 25 360 9.7 17.7 0.00 0.00 0.00 70 1012.4
20260508181123 25 360 9.7 17.7 0.00 0.00 0.00 70 1012.5
20260508181024 25 360 8.0 16.1 0.00 0.00 0.00 70 1012.5
20260508180924 25 360 8.0 16.1 0.00 0.00 0.00 70 1012.5
20260508180845 25 360 8.0 16.1 0.00 0.00 0.00 70 1012.5
20260508180724 25 360 6.4 16.1 0.00 0.00 0.00 71 1012.6
20260508180624 25 360 8.0 16.1 0.00 0.00 0.00 71 1012.6
20260508180524 25 360 8.0 16.1 0.00 0.00 0.00 72 1012.7
20260508180428 25 360 8.0 16.1 0.00 0.00 0.00 71 1012.7
20260508180349 24 360 8.0 16.1 0.00 0.00 0.00 71 1012.7
20260508180249 24 360 9.7 16.1 0.00 0.00 0.00 70 1012.7
20260508180128 25 360 8.0 16.1 0.00 0.00 0.00 70 1012.7
20260508180028 25 360 8.0 16.1 0.00 0.00 0.00 70 1012.7
20260508175928 25 360 8.0 16.1 0.00 0.00 0.00 69 1012.7
20260508175828 25 360 8.0 16.1 0.00 0.00 0.00 69 1012.8
20260508175729 25 360 8.0 16.1 0.00 0.00 0.00 69 1012.7
20260508175633 25 360 8.0 16.1 0.00 0.00 0.00 69 1012.7
20260508175554 25 360 6.4 16.1 0.00 0.00 0.00 69 1012.8
20260508175433 25 360 6.4 14.5 0.00 0.00 0.00 69 1012.8
20260508175333 25 360 4.8 14.5 0.00 0.00 0.00 70 1012.7
20260508175254 25 360 4.8 14.5 0.00 0.00 0.00 69 1012.7
20260508175133 25 360 6.4 14.5 0.00 0.00 0.00 69 1012.7
20260508175033 25 360 6.4 14.5 0.00 0.00 0.00 69 1012.7
20260508174918 25 360 6.4 14.5 0.00 0.00 0.00 69 1012.8
20260508174819 25 360 4.8 14.5 0.00 0.00 0.00 69 1012.8
20260508174740 25 360 4.8 14.5 0.00 0.00 0.00 69 1012.8
20260508174619 25 360 3.2 8.0 0.00 0.00 0.00 69 1012.8
20260508174520 25 360 4.8 8.0 0.00 0.00 0.00 68 1012.8
20260508174440 25 360 4.8 8.0 0.00 0.00 0.00 68 1012.8
20260508174340 25 360 4.8 8.0 0.00 0.00 0.00 68 1012.8
20260508174218 26 360 4.8 8.0 0.00 0.00 0.00 67 1012.7
20260508174123 26 360 4.8 8.0 0.00 0.00 0.00 67 1012.8
20260508174023 26 360 3.2 6.4 0.00 0.00 0.00 66 1012.8
20260508173923 26 360 3.2 8.0 0.00 0.00 0.00 66 1012.7
20260508173823 26 360 3.2 8.0 0.00 0.00 0.00 65 1012.7
20260508173725 26 91 3.2 8.0 0.00 0.00 0.00 65 1012.7
20260508173625 26 360 3.2 8.0 0.00 0.00 0.00 66 1012.7
20260508173529 26 360 4.8 8.0 0.00 0.00 0.00 65 1012.7
20260508173430 26 360 4.8 8.0 0.00 0.00 0.00 65 1012.7
20260508173330 26 42 4.8 8.0 0.00 0.00 0.00 65 1012.8
20260508173231 26 50 4.8 8.0 0.00 0.00 0.00 65 1012.8
20260508173131 26 64 4.8 8.0 0.00 0.00 0.00 65 1012.8
20260508173032 26 360 4.8 8.0 0.00 0.00 0.00 65 1012.9
20260508172916 26 360 3.2 8.0 0.00 0.00 0.00 67 1013.0
20260508172816 26 360 3.2 8.0 0.00 0.00 0.00 67 1013.0
20260508172737 26 89 3.2 8.0 0.00 0.00 0.00 67 1013.0
20260508172617 25 85 4.8 8.0 0.00 0.00 0.00 67 1013.0
20260508172518 25 360 4.8 8.0 0.00 0.00 0.00 68 1013.0
20260508172418 25 360 4.8 8.0 0.00 0.00 0.00 67 1013.1
20260508172319 25 360 4.8 8.0 0.00 0.00 0.00 66 1013.0
20260508172240 25 360 4.8 8.0 0.00 0.00 0.00 66 1013.0
20260508172143 25 360 4.8 6.4 0.00 0.00 0.00 65 1013.0
20260508172016 26 360 4.8 6.4 0.00 0.00 0.00 64 1013.0
20260508171916 26 360 4.8 6.4 0.00 0.00 0.00 64 1013.1
20260508171816 26 75 3.2 6.4 0.00 0.00 0.00 64 1013.1
20260508171715 26 360 3.2 6.4 0.00 0.00 0.00 65 1013.1
20260508171616 26 360 1.6 6.4 0.00 0.00 0.00 65 1013.1
20260508171516 26 65 1.6 6.4 0.00 0.00 0.00 65 1013.1
20260508171421 26 360 3.2 6.4 0.00 0.00 0.00 65 1013.1
20260508171321 26 360 3.2 6.4 0.00 0.00 0.00 66 1013.1
20260508171240 26 360 3.2 8.0 0.00 0.00 0.00 66 1013.0
20260508171120 26 92 3.2 8.0 0.00 0.00 0.00 67 1013.1
20260508171021 26 360 3.2 8.0 0.00 0.00 0.00 67 1013.1
20260508170921 25 360 3.2 8.0 0.00 0.00 0.00 68 1013.0
20260508170822 26 360 3.2 8.0 0.00 0.00 0.00 67 1013.0
20260508170726 26 360 3.2 8.0 0.00 0.00 0.00 67 1013.0
20260508170627 26 360 3.2 8.0 0.00 0.00 0.00 67 1013.0
20260508170526 26 360 3.2 8.0 0.00 0.00 0.00 68 1013.0
20260508170445 25 360 3.2 9.7 0.00 0.00 0.00 68 1013.0
20260508170325 25 360 3.2 9.7 0.00 0.00 0.00 69 1012.9
20260508170225 25 66 3.2 9.7 0.00 0.00 0.00 69 1013.0
20260508170145 25 360 3.2 9.7 0.00 0.00 0.00 68 1013.0
20260508170025 25 360 3.2 9.7 0.00 0.00 0.00 68 1013.0
20260508165930 25 360 3.2 9.7 0.00 0.00 0.00 67 1013.0
20260508165851 25 42 4.8 9.7 0.00 0.00 0.00 67 1013.1
20260508165732 25 360 4.8 9.7 0.00 0.00 0.00 67 1013.2
20260508165632 25 360 3.2 9.7 0.00 0.00 0.00 68 1013.2
20260508165552 25 360 3.2 9.7 0.00 0.00 0.00 68 1013.2
20260508165431 25 360 1.6 6.4 0.00 0.00 0.00 70 1013.2
20260508165332 25 360 1.6 8.0 0.00 0.00 0.00 70 1013.3
20260508165252 24 360 1.6 8.0 0.00 0.00 0.00 71 1013.3
20260508165135 24 120 1.6 9.7 0.00 0.00 0.00 71 1013.4
20260508165056 23 360 1.6 9.7 0.00 0.00 0.00 71 1013.3
20260508164935 23 360 3.2 9.7 0.00 0.00 0.00 71 1013.3
20260508164856 23 121 3.2 9.7 0.00 0.00 0.00 71 1013.3
20260508164715 23 360 4.8 9.7 0.00 0.00 0.00 71 1013.2
20260508164635 23 360 6.4 9.7 0.00 0.00 0.00 70 1013.2
20260508164556 23 90 6.4 9.7 0.00 0.00 0.00 70 1013.3
20260508164420 23 360 4.8 9.7 0.00 0.00 0.00 70 1013.3
20260508164321 23 360 4.8 9.7 0.00 0.00 0.00 69 1013.3
20260508164222 23 360 3.2 8.0 0.00 0.00 0.00 70 1013.3
20260508164121 23 360 3.2 9.7 0.00 0.00 0.00 70 1013.3
20260508164022 23 360 4.8 9.7 0.00 0.00 0.00 69 1013.3
20260508163923 23 360 4.8 9.7 0.00 0.00 0.00 70 1013.3
20260508163824 23 360 4.8 9.7 0.00 0.00 0.00 68 1013.3
20260508163727 24 360 4.8 9.7 0.00 0.00 0.00 68 1013.3
20260508163628 24 360 4.8 6.4 0.00 0.00 0.00 68 1013.4
20260508163527 25 360 4.8 6.4 0.00 0.00 0.00 66 1013.4
20260508163428 25 360 4.8 6.4 0.00 0.00 0.00 66 1013.3
20260508163328 25 360 3.2 6.4 0.00 0.00 0.00 66 1013.4
20260508163228 25 360 3.2 6.4 0.00 0.00 0.00 67 1013.4
20260508163128 25 360 3.2 6.4 0.00 0.00 0.00 68 1013.4
20260508163053 24 360 3.2 6.4 0.00 0.00 0.00 68 1013.5
20260508162952 24 360 3.2 6.4 0.00 0.00 0.00 68 1013.6
20260508162831 24 360 3.2 6.4 0.00 0.00 0.00 68 1013.5
20260508162733 24 109 3.2 6.4 0.00 0.00 0.00 68 1013.7
20260508162630 24 360 3.2 6.4 0.00 0.00 0.00 70 1013.7
20260508162531 23 360 3.2 6.4 0.00 0.00 0.00 70 1013.8
20260508162431 23 360 3.2 6.4 0.00 0.00 0.00 70 1013.8
20260508162351 23 360 3.2 9.7 0.00 0.00 0.00 70 1013.8
20260508162216 23 360 3.2 9.7 0.00 0.00 0.00 70 1013.8
20260508162117 23 360 3.2 9.7 0.00 0.00 0.00 70 1013.8
20260508162017 23 360 3.2 9.7 0.00 0.00 0.00 70 1013.8
20260508161917 23 360 3.2 9.7 0.00 0.00 0.00 70 1013.8
20260508161818 23 360 3.2 9.7 0.00 0.00 0.00 70 1013.9
20260508161718 23 105 4.8 9.7 0.00 0.00 0.00 70 1014.0
20260508161638 23 360 4.8 8.0 0.00 0.00 0.00 69 1013.9
20260508161522 23 360 4.8 8.0 0.00 0.00 0.00 69 1013.9
20260508161422 23 360 4.8 8.0 0.00 0.00 0.00 69 1013.9
20260508161323 23 360 3.2 8.0 0.00 0.00 0.00 68 1013.9
20260508161224 23 360 3.2 8.0 0.00 0.00 0.00 68 1013.9
20260508161124 23 360 1.6 8.0 0.00 0.00 0.00 70 1013.9
20260508161024 23 360 1.6 4.8 0.00 0.00 0.00 70 1014.0
20260508160945 23 360 1.6 6.4 0.00 0.00 0.00 71 1014.0
20260508160830 22 360 1.6 6.4 0.00 0.00 0.00 71 1014.0
20260508160730 22 360 1.6 6.4 0.00 0.00 0.00 73 1014.0
20260508160630 22 360 1.6 6.4 0.00 0.00 0.00 74 1013.9
20260508160550 22 360 1.6 6.4 0.00 0.00 0.00 73 1014.0
20260508160430 22 360 1.6 6.4 0.00 0.00 0.00 73 1013.9
20260508160330 21 360 1.6 6.4 0.00 0.00 0.00 73 1014.0
20260508160251 21 360 3.2 6.4 0.00 0.00 0.00 74 1013.9
20260508160129 21 360 3.2 6.4 0.00 0.00 0.00 74 1014.0
20260508160033 21 360 3.2 4.8 0.00 0.00 0.00 74 1014.1
20260508155934 21 360 3.2 4.8 0.00 0.00 0.00 74 1014.1
20260508155855 21 360 3.2 4.8 0.00 0.00 0.00 74 1014.1
20260508155735 21 360 3.2 4.8 0.00 0.00 0.00 74 1014.0
20260508155634 21 360 1.6 4.8 0.00 0.00 0.00 74 1014.0
20260508155535 21 360 1.6 4.8 0.00 0.00 0.00 74 1014.1
20260508155455 21 360 1.6 4.8 0.00 0.00 0.00 74 1014.1
20260508155319 21 360 3.2 4.8 0.00 0.00 0.00 73 1014.2
20260508155218 21 360 3.2 4.8 0.00 0.00 0.00 73 1014.2
20260508155119 21 360 3.2 4.8 0.00 0.00 0.00 73 1014.2
20260508155020 21 360 3.2 4.8 0.00 0.00 0.00 73 1014.1
20260508154940 21 360 3.2 4.8 0.00 0.00 0.00 73 1014.1
20260508154820 21 360 3.2 4.8 0.00 0.00 0.00 73 1014.2
20260508154720 21 360 1.6 4.8 0.00 0.00 0.00 73 1014.3
20260508154645 21 360 1.6 3.2 0.00 0.00 0.00 74 1014.2
20260508154524 21 360 1.6 3.2 0.00 0.00 0.00 74 1014.2
20260508154425 21 360 1.6 4.8 0.00 0.00 0.00 74 1014.1
20260508154322 21 360 1.6 4.8 0.00 0.00 0.00 74 1014.1
20260508154222 21 360 1.6 4.8 0.00 0.00 0.00 74 1014.2
20260508154143 21 360 1.6 4.8 0.00 0.00 0.00 74 1014.1
20260508154022 21 360 1.6 4.8 0.00 0.00 0.00 74 1014.1
20260508153922 20 360 1.6 4.8 0.00 0.00 0.00 74 1014.2
20260508153827 20 360 1.6 4.8 0.00 0.00 0.00 74 1014.2
20260508153728 20 360 1.6 4.8 0.00 0.00 0.00 74 1014.2
20260508153628 20 360 1.6 4.8 0.00 0.00 0.00 74 1014.2
20260508153529 20 360 1.6 4.8 0.00 0.00 0.00 74 1014.2
20260508153449 20 360 1.6 4.8 0.00 0.00 0.00 74 1014.1
20260508153328 20 360 1.6 4.8 0.00 0.00 0.00 75 1014.2
20260508153229 20 360 1.6 4.8 0.00 0.00 0.00 75 1014.2
20260508153133 20 360 1.6 4.8 0.00 0.00 0.00 75 1014.2
20260508153033 20 360 1.6 4.8 0.00 0.00 0.00 75 1014.3
20260508152934 20 360 1.6 4.8 0.00 0.00 0.00 75 1014.3